Time,TemperatureF,DewpointF,PressureIn,WindDirection,WindDirectionDegrees,WindSpeedMPH,WindSpeedGustMPH,Humidity,HourlyPrecipIn,Conditions,Clouds,dailyrainin,SolarRadiationWatts/m^2,SoftwareType,DateUTC
2013-01-07 00:00:00,18.0,11.7,30.26,North,355,1.0,1.0,76,0.00,,,0.00,0,Wunderground v.1.15,2013-01-07 05:00:00,
2013-01-07 00:01:00,18.0,11.7,30.26,North,355,1.0,4.0,76,0.00,,,0.00,0,Wunderground v.1.15,2013-01-07 05:01:00,
2013-01-07 00:02:00,18.0,11.7,30.26,North,355,1.0,4.0,76,0.00,,,0.00,0,Wunderground v.1.15,2013-01-07 05:02:00,
2013-01-07 00:06:00,18.0,11.7,30.26,North,5,1.0,4.0,76,0.00,,,0.00,0,Wunderground v.1.15,2013-01-07 05:06:00,
2013-01-07 00:08:00,18.0,11.7,30.26,North,11,1.0,4.0,76,0.00,,,0.00,0,Wunderground v.1.15,2013-01-07 05:08:00,
2013-01-07 00:09:00,18.0,11.7,30.26,North,11,1.0,4.0,76,0.00,,,0.00,0,Wunderground v.1.15,2013-01-07 05:09:00,
2013-01-07 00:14:00,18.0,11.7,30.26,North,11,1.0,4.0,76,0.00,,,0.00,0,Wunderground v.1.15,2013-01-07 05:14:00,
2013-01-07 00:16:00,18.0,11.7,30.26,NNW,341,0.0,4.0,76,0.00,,,0.00,0,Wunderground v.1.15,2013-01-07 05:16:00,
2013-01-07 00:19:00,18.0,11.7,30.25,North,355,0.0,4.0,76,0.00,,,0.00,0,Wunderground v.1.15,2013-01-07 05:19:00,
2013-01-07 00:21:00,18.0,11.4,30.25,North,355,0.0,4.0,75,0.00,,,0.00,0,Wunderground v.1.15,2013-01-07 05:21:00,
2013-01-07 00:23:00,18.0,11.4,30.25,NNW,348,1.0,4.0,75,0.00,,,0.00,0,Wunderground v.1.15,2013-01-07 05:23:00,
2013-01-07 00:27:00,18.0,11.4,30.26,North,10,1.0,4.0,75,0.00,,,0.00,0,Wunderground v.1.15,2013-01-07 05:27:00,
2013-01-07 00:29:00,18.1,11.5,30.26,North,10,1.0,4.0,75,0.00,,,0.00,0,Wunderground v.1.15,2013-01-07 05:29:00,
2013-01-07 00:33:00,18.0,11.4,30.26,North,5,0.0,4.0,75,0.00,,,0.00,0,Wunderground v.1.15,2013-01-07 05:33:00,
2013-01-07 00:34:00,18.0,11.4,30.26,North,360,0.0,4.0,75,0.00,,,0.00,0,Wunderground v.1.15,2013-01-07 05:34:00,
2013-01-07 00:39:00,18.1,11.8,30.26,NNW,346,0.0,4.0,76,0.00,,,0.00,0,Wunderground v.1.15,2013-01-07 05:39:00,
2013-01-07 00:42:00,18.1,11.5,30.26,NNW,348,0.0,4.0,75,0.00,,,0.00,0,Wunderground v.1.15,2013-01-07 05:42:00,
2013-01-07 00:45:00,18.0,11.4,30.26,North,355,0.0,4.0,75,0.00,,,0.00,0,Wunderground v.1.15,2013-01-07 05:45:00,
2013-01-07 00:47:00,18.0,11.4,30.26,NNE,12,1.0,4.0,75,0.00,,,0.00,0,Wunderground v.1.15,2013-01-07 05:47:00,
2013-01-07 00:52:00,18.0,11.7,30.26,North,5,1.0,4.0,76,0.00,,,0.00,0,Wunderground v.1.15,2013-01-07 05:52:00,
2013-01-07 00:53:00,18.0,11.7,30.25,NNW,346,1.0,4.0,76,0.00,,,0.00,0,Wunderground v.1.15,2013-01-07 05:53:00,
2013-01-07 00:55:00,18.0,11.7,30.25,North,355,1.0,4.0,76,0.00,,,0.00,0,Wunderground v.1.15,2013-01-07 05:55:00,
2013-01-07 01:00:00,18.0,11.7,30.25,North,355,1.0,1.0,76,0.00,,,0.00,0,Wunderground v.1.15,2013-01-07 06:00:00,
2013-01-07 01:01:00,18.0,11.7,30.25,North,355,1.0,2.0,76,0.00,,,0.00,0,Wunderground v.1.15,2013-01-07 06:01:00,
2013-01-07 01:06:00,18.0,11.7,30.25,North,5,1.0,4.0,76,0.00,,,0.00,0,Wunderground v.1.15,2013-01-07 06:06:00,
2013-01-07 01:08:00,18.0,11.7,30.25,NNW,339,1.0,4.0,76,0.00,,,0.00,0,Wunderground v.1.15,2013-01-07 06:08:00,
2013-01-07 01:12:00,18.0,11.7,30.25,North,355,1.0,4.0,76,0.00,,,0.00,0,Wunderground v.1.15,2013-01-07 06:12:00,
2013-01-07 01:13:00,17.9,11.6,30.25,North,355,1.0,4.0,76,0.00,,,0.00,0,Wunderground v.1.15,2013-01-07 06:13:00,
2013-01-07 01:15:00,17.9,11.6,30.25,North,5,1.0,4.0,76,0.00,,,0.00,0,Wunderground v.1.15,2013-01-07 06:15:00,
2013-01-07 01:18:00,17.9,11.6,30.25,North,5,0.0,4.0,76,0.00,,,0.00,0,Wunderground v.1.15,2013-01-07 06:18:00,
2013-01-07 01:20:00,17.9,11.6,30.26,NNE,22,0.0,4.0,76,0.00,,,0.00,0,Wunderground v.1.15,2013-01-07 06:20:00,
2013-01-07 01:23:00,17.9,11.6,30.26,NNW,331,0.0,4.0,76,0.00,,,0.00,0,Wunderground v.1.15,2013-01-07 06:23:00,
2013-01-07 01:24:00,17.9,11.6,30.26,NNW,331,0.0,4.0,76,0.00,,,0.00,0,Wunderground v.1.15,2013-01-07 06:24:00,
2013-01-07 01:30:00,17.9,11.6,30.26,NNW,331,0.0,4.0,76,0.00,,,0.00,0,Wunderground v.1.15,2013-01-07 06:30:00,
2013-01-07 01:31:00,17.9,11.6,30.26,NNW,331,0.0,4.0,76,0.00,,,0.00,0,Wunderground v.1.15,2013-01-07 06:31:00,
2013-01-07 01:35:00,17.8,11.5,30.26,NNE,17,0.0,4.0,76,0.00,,,0.00,0,Wunderground v.1.15,2013-01-07 06:35:00,
2013-01-07 01:36:00,17.8,11.5,30.26,NNE,17,0.0,4.0,76,0.00,,,0.00,0,Wunderground v.1.15,2013-01-07 06:36:00,
2013-01-07 01:37:00,17.8,11.5,30.26,NNE,17,0.0,4.0,76,0.00,,,0.00,0,Wunderground v.1.15,2013-01-07 06:37:00,
2013-01-07 01:41:00,17.8,11.5,30.27,North,355,0.0,4.0,76,0.00,,,0.00,0,Wunderground v.1.15,2013-01-07 06:41:00,
2013-01-07 01:45:00,17.7,11.4,30.27,NW,317,0.0,4.0,76,0.00,,,0.00,0,Wunderground v.1.15,2013-01-07 06:45:00,
2013-01-07 01:47:00,17.7,11.4,30.27,NW,317,0.0,4.0,76,0.00,,,0.00,0,Wunderground v.1.15,2013-01-07 06:47:00,
2013-01-07 01:50:00,17.6,11.3,30.27,NW,317,0.0,4.0,76,0.00,,,0.00,0,Wunderground v.1.15,2013-01-07 06:50:00,
2013-01-07 01:51:00,17.6,11.3,30.27,NW,317,0.0,4.0,76,0.00,,,0.00,0,Wunderground v.1.15,2013-01-07 06:51:00,
2013-01-07 01:52:00,17.6,11.3,30.27,NW,317,0.0,4.0,76,0.00,,,0.00,0,Wunderground v.1.15,2013-01-07 06:52:00,
2013-01-07 01:56:00,17.5,11.2,30.27,NW,317,0.0,4.0,76,0.00,,,0.00,0,Wunderground v.1.15,2013-01-07 06:56:00,
2013-01-07 01:58:00,17.5,11.2,30.27,NW,317,0.0,4.0,76,0.00,,,0.00,0,Wunderground v.1.15,2013-01-07 06:58:00,
2013-01-07 01:59:00,17.5,11.2,30.28,NW,317,0.0,4.0,76,0.00,,,0.00,0,Wunderground v.1.15,2013-01-07 06:59:00,
2013-01-07 02:02:00,17.5,11.2,30.27,NW,317,0.0,4.0,76,0.00,,,0.00,0,Wunderground v.1.15,2013-01-07 07:02:00,
2013-01-07 02:03:00,17.5,11.2,30.27,NW,317,0.0,4.0,76,0.00,,,0.00,0,Wunderground v.1.15,2013-01-07 07:03:00,
2013-01-07 02:07:00,17.5,11.5,30.27,NW,317,0.0,4.0,77,0.00,,,0.00,0,Wunderground v.1.15,2013-01-07 07:07:00,
2013-01-07 02:08:00,17.5,11.5,30.27,NNW,347,0.0,4.0,77,0.00,,,0.00,0,Wunderground v.1.15,2013-01-07 07:08:00,
2013-01-07 02:13:00,17.5,11.5,30.26,North,355,0.0,4.0,77,0.00,,,0.00,0,Wunderground v.1.15,2013-01-07 07:13:00,
2013-01-07 02:15:00,17.5,11.5,30.26,NNE,23,1.0,4.0,77,0.00,,,0.00,0,Wunderground v.1.15,2013-01-07 07:15:00,
2013-01-07 02:16:00,17.5,11.5,30.26,North,5,1.0,4.0,77,0.00,,,0.00,0,Wunderground v.1.15,2013-01-07 07:16:00,
2013-01-07 02:20:00,17.5,11.5,30.26,North,360,1.0,1.0,77,0.00,,,0.00,0,Wunderground v.1.15,2013-01-07 07:20:00,
2013-01-07 02:21:00,17.5,11.5,30.26,North,360,1.0,4.0,77,0.00,,,0.00,0,Wunderground v.1.15,2013-01-07 07:21:00,
2013-01-07 02:22:00,17.5,11.5,30.26,NNE,15,1.0,4.0,77,0.00,,,0.00,0,Wunderground v.1.15,2013-01-07 07:22:00,
2013-01-07 02:26:00,17.4,11.4,30.26,North,355,1.0,4.0,77,0.00,,,0.00,0,Wunderground v.1.15,2013-01-07 07:26:00,
2013-01-07 02:27:00,17.4,11.4,30.26,North,10,1.0,4.0,77,0.00,,,0.00,0,Wunderground v.1.15,2013-01-07 07:27:00,
2013-01-07 02:28:00,17.4,11.4,30.26,North,360,1.0,4.0,77,0.00,,,0.00,0,Wunderground v.1.15,2013-01-07 07:28:00,
2013-01-07 02:30:00,17.4,11.4,30.26,NNE,13,2.0,4.0,77,0.00,,,0.00,0,Wunderground v.1.15,2013-01-07 07:30:00,
2013-01-07 02:34:00,17.3,11.3,30.26,NNE,12,2.0,4.0,77,0.00,,,0.00,0,Wunderground v.1.15,2013-01-07 07:34:00,
2013-01-07 02:35:00,17.3,11.3,30.26,North,350,1.0,4.0,77,0.00,,,0.00,0,Wunderground v.1.15,2013-01-07 07:35:00,
2013-01-07 02:37:00,17.3,11.3,30.26,North,5,2.0,4.0,77,0.00,,,0.00,0,Wunderground v.1.15,2013-01-07 07:37:00,
2013-01-07 02:40:00,17.3,11.3,30.25,North,355,2.0,2.0,77,0.00,,,0.00,0,Wunderground v.1.15,2013-01-07 07:40:00,
2013-01-07 02:41:00,17.3,11.3,30.25,North,350,2.0,4.0,77,0.00,,,0.00,0,Wunderground v.1.15,2013-01-07 07:41:00,
2013-01-07 02:43:00,17.3,11.6,30.25,North,9,2.0,4.0,78,0.00,,,0.00,0,Wunderground v.1.15,2013-01-07 07:43:00,
2013-01-07 02:46:00,17.4,11.7,30.25,North,5,2.0,4.0,78,0.00,,,0.00,0,Wunderground v.1.15,2013-01-07 07:46:00,
2013-01-07 02:49:00,17.4,11.7,30.26,NE,37,1.0,4.0,78,0.00,,,0.00,0,Wunderground v.1.15,2013-01-07 07:49:00,
2013-01-07 02:50:00,17.4,11.7,30.26,NNE,19,1.0,1.0,78,0.00,,,0.00,0,Wunderground v.1.15,2013-01-07 07:50:00,
2013-01-07 02:52:00,17.4,11.7,30.25,NNE,19,1.0,4.0,78,0.00,,,0.00,0,Wunderground v.1.15,2013-01-07 07:52:00,
2013-01-07 02:53:00,17.4,11.7,30.25,NNW,338,1.0,4.0,78,0.00,,,0.00,0,Wunderground v.1.15,2013-01-07 07:53:00,
2013-01-07 02:54:00,17.4,11.7,30.25,NNW,338,0.0,4.0,78,0.00,,,0.00,0,Wunderground v.1.15,2013-01-07 07:54:00,
2013-01-07 02:57:00,17.5,11.8,30.25,North,360,1.0,4.0,78,0.00,,,0.00,0,Wunderground v.1.15,2013-01-07 07:57:00,
2013-01-07 02:59:00,17.5,11.8,30.25,NNW,331,1.0,4.0,78,0.00,,,0.00,0,Wunderground v.1.15,2013-01-07 07:59:00,
2013-01-07 03:00:00,17.5,11.8,30.25,NNW,331,1.0,1.0,78,0.00,,,0.00,0,Wunderground v.1.15,2013-01-07 08:00:00,
2013-01-07 03:03:00,17.5,11.8,30.25,North,360,1.0,4.0,78,0.00,,,0.00,0,Wunderground v.1.15,2013-01-07 08:03:00,
2013-01-07 03:06:00,17.5,11.8,30.25,North,355,1.0,4.0,78,0.00,,,0.00,0,Wunderground v.1.15,2013-01-07 08:06:00,
2013-01-07 03:07:00,17.5,11.8,30.25,North,355,1.0,4.0,78,0.00,,,0.00,0,Wunderground v.1.15,2013-01-07 08:07:00,
2013-01-07 03:09:00,17.5,11.8,30.25,North,5,1.0,4.0,78,0.00,,,0.00,0,Wunderground v.1.15,2013-01-07 08:09:00,
2013-01-07 03:13:00,17.4,11.7,30.25,North,5,1.0,4.0,78,0.00,,,0.00,0,Wunderground v.1.15,2013-01-07 08:13:00,
2013-01-07 03:14:00,17.5,11.8,30.25,North,5,1.0,4.0,78,0.00,,,0.00,0,Wunderground v.1.15,2013-01-07 08:14:00,
2013-01-07 03:15:00,17.5,11.8,30.25,NNW,330,1.0,4.0,78,0.00,,,0.00,0,Wunderground v.1.15,2013-01-07 08:15:00,
2013-01-07 03:16:00,17.5,11.8,30.25,North,5,0.0,4.0,78,0.00,,,0.00,0,Wunderground v.1.15,2013-01-07 08:16:00,
2013-01-07 03:22:00,17.4,11.7,30.25,North,11,0.0,4.0,78,0.00,,,0.00,0,Wunderground v.1.15,2013-01-07 08:22:00,
2013-01-07 03:26:00,17.4,11.7,30.24,North,9,1.0,4.0,78,0.00,,,0.00,0,Wunderground v.1.15,2013-01-07 08:26:00,
2013-01-07 03:28:00,17.3,11.6,30.24,North,11,1.0,4.0,78,0.00,,,0.00,0,Wunderground v.1.15,2013-01-07 08:28:00,
2013-01-07 03:31:00,17.3,11.6,30.25,North,360,1.0,4.0,78,0.00,,,0.00,0,Wunderground v.1.15,2013-01-07 08:31:00,
2013-01-07 03:32:00,17.3,11.9,30.25,North,360,1.0,4.0,79,0.00,,,0.00,0,Wunderground v.1.15,2013-01-07 08:32:00,
2013-01-07 03:36:00,17.2,11.8,30.24,North,355,1.0,4.0,79,0.00,,,0.00,0,Wunderground v.1.15,2013-01-07 08:36:00,
2013-01-07 03:39:00,17.2,11.5,30.24,North,355,1.0,4.0,78,0.00,,,0.00,0,Wunderground v.1.15,2013-01-07 08:39:00,
2013-01-07 03:40:00,17.1,11.4,30.24,North,360,1.0,1.0,78,0.00,,,0.00,0,Wunderground v.1.15,2013-01-07 08:40:00,
2013-01-07 03:43:00,17.0,11.3,30.24,NNW,338,2.0,4.0,78,0.00,,,0.00,0,Wunderground v.1.15,2013-01-07 08:43:00,
2013-01-07 03:46:00,17.0,11.6,30.24,North,5,1.0,4.0,79,0.00,,,0.00,0,Wunderground v.1.15,2013-01-07 08:46:00,
2013-01-07 03:49:00,16.9,11.5,30.24,North,360,1.0,4.0,79,0.00,,,0.00,0,Wunderground v.1.15,2013-01-07 08:49:00,
2013-01-07 03:51:00,16.9,11.5,30.24,North,355,1.0,4.0,79,0.00,,,0.00,0,Wunderground v.1.15,2013-01-07 08:51:00,
2013-01-07 03:56:00,16.8,11.4,30.24,North,360,1.0,4.0,79,0.00,,,0.00,0,Wunderground v.1.15,2013-01-07 08:56:00,
2013-01-07 03:57:00,16.8,11.4,30.24,North,360,1.0,4.0,79,0.00,,,0.00,0,Wunderground v.1.15,2013-01-07 08:57:00,
2013-01-07 03:59:00,16.8,11.7,30.24,North,5,1.0,4.0,80,0.00,,,0.00,0,Wunderground v.1.15,2013-01-07 08:59:00,
2013-01-07 04:01:00,16.8,11.7,30.24,NNE,13,1.0,4.0,80,0.00,,,0.00,0,Wunderground v.1.15,2013-01-07 09:01:00,
2013-01-07 04:06:00,16.8,11.7,30.24,NNW,348,0.0,4.0,80,0.00,,,0.00,0,Wunderground v.1.15,2013-01-07 09:06:00,
2013-01-07 04:08:00,16.8,11.7,30.23,North,360,0.0,4.0,80,0.00,,,0.00,0,Wunderground v.1.15,2013-01-07 09:08:00,
2013-01-07 04:10:00,16.8,11.7,30.24,North,360,0.0,4.0,80,0.00,,,0.00,0,Wunderground v.1.15,2013-01-07 09:10:00,
2013-01-07 04:12:00,16.8,11.7,30.24,North,355,0.0,4.0,80,0.00,,,0.00,0,Wunderground v.1.15,2013-01-07 09:12:00,
2013-01-07 04:14:00,16.8,11.7,30.24,North,355,1.0,4.0,80,0.00,,,0.00,0,Wunderground v.1.15,2013-01-07 09:14:00,
2013-01-07 04:15:00,16.8,11.7,30.24,North,5,1.0,4.0,80,0.00,,,0.00,0,Wunderground v.1.15,2013-01-07 09:15:00,
2013-01-07 04:16:00,16.8,11.7,30.23,North,5,1.0,4.0,80,0.00,,,0.00,0,Wunderground v.1.15,2013-01-07 09:16:00,
2013-01-07 04:20:00,16.7,11.6,30.23,North,355,2.0,2.0,80,0.00,,,0.00,0,Wunderground v.1.15,2013-01-07 09:20:00,
2013-01-07 04:21:00,16.7,11.6,30.23,North,355,2.0,4.0,80,0.00,,,0.00,0,Wunderground v.1.15,2013-01-07 09:21:00,
2013-01-07 04:23:00,16.7,11.9,30.23,North,11,1.0,4.0,81,0.00,,,0.00,0,Wunderground v.1.15,2013-01-07 09:23:00,
2013-01-07 04:27:00,16.7,11.9,30.23,North,355,1.0,4.0,81,0.00,,,0.00,0,Wunderground v.1.15,2013-01-07 09:27:00,
2013-01-07 04:28:00,16.7,11.9,30.23,North,355,1.0,4.0,81,0.00,,,0.00,0,Wunderground v.1.15,2013-01-07 09:28:00,
2013-01-07 04:29:00,16.7,11.9,30.23,North,355,0.0,4.0,81,0.00,,,0.00,0,Wunderground v.1.15,2013-01-07 09:29:00,
2013-01-07 04:30:00,16.7,11.9,30.23,North,355,0.0,4.0,81,0.00,,,0.00,0,Wunderground v.1.15,2013-01-07 09:30:00,
2013-01-07 04:33:00,16.7,11.9,30.23,North,5,0.0,4.0,81,0.00,,,0.00,0,Wunderground v.1.15,2013-01-07 09:33:00,
2013-01-07 04:35:00,16.8,12.0,30.23,North,5,0.0,4.0,81,0.00,,,0.00,0,Wunderground v.1.15,2013-01-07 09:35:00,
2013-01-07 04:36:00,16.8,12.0,30.23,North,5,0.0,4.0,81,0.00,,,0.00,0,Wunderground v.1.15,2013-01-07 09:36:00,
2013-01-07 04:38:00,16.8,12.0,30.22,North,5,0.0,4.0,81,0.00,,,0.00,0,Wunderground v.1.15,2013-01-07 09:38:00,
2013-01-07 04:42:00,16.8,12.3,30.22,North,360,0.0,4.0,82,0.00,,,0.00,0,Wunderground v.1.15,2013-01-07 09:42:00,
2013-01-07 04:43:00,16.8,12.3,30.22,North,360,0.0,4.0,82,0.00,,,0.00,0,Wunderground v.1.15,2013-01-07 09:43:00,
2013-01-07 04:44:00,16.8,12.3,30.22,North,11,0.0,4.0,82,0.00,,,0.00,0,Wunderground v.1.15,2013-01-07 09:44:00,
2013-01-07 04:45:00,16.8,12.3,30.22,North,5,0.0,4.0,82,0.00,,,0.00,0,Wunderground v.1.15,2013-01-07 09:45:00,
2013-01-07 04:49:00,16.9,12.4,30.22,North,350,1.0,4.0,82,0.00,,,0.00,0,Wunderground v.1.15,2013-01-07 09:49:00,
2013-01-07 04:54:00,16.9,12.4,30.22,North,355,2.0,4.0,82,0.00,,,0.00,0,Wunderground v.1.15,2013-01-07 09:54:00,
2013-01-07 04:55:00,16.8,12.3,30.22,North,360,2.0,5.0,82,0.00,,,0.00,0,Wunderground v.1.15,2013-01-07 09:55:00,
2013-01-07 04:56:00,16.8,12.3,30.21,North,360,2.0,5.0,82,0.00,,,0.00,0,Wunderground v.1.15,2013-01-07 09:56:00,
2013-01-07 04:59:00,16.9,12.4,30.22,NNW,330,1.0,5.0,82,0.00,,,0.00,0,Wunderground v.1.15,2013-01-07 09:59:00,
2013-01-07 05:02:00,16.9,12.4,30.22,NNW,348,1.0,4.0,82,0.00,,,0.00,0,Wunderground v.1.15,2013-01-07 10:02:00,
2013-01-07 05:05:00,16.9,12.6,30.22,North,11,2.0,4.0,83,0.00,,,0.00,0,Wunderground v.1.15,2013-01-07 10:05:00,
2013-01-07 05:09:00,16.9,12.6,30.21,NNW,329,1.0,4.0,83,0.00,,,0.00,0,Wunderground v.1.15,2013-01-07 10:09:00,
2013-01-07 05:14:00,17.0,12.7,30.21,NNW,338,1.0,4.0,83,0.00,,,0.00,0,Wunderground v.1.15,2013-01-07 10:14:00,
2013-01-07 05:16:00,17.0,12.7,30.21,NW,322,0.0,4.0,83,0.00,,,0.00,0,Wunderground v.1.15,2013-01-07 10:16:00,
2013-01-07 05:17:00,17.0,12.7,30.21,NNW,333,0.0,4.0,83,0.00,,,0.00,0,Wunderground v.1.15,2013-01-07 10:17:00,
2013-01-07 05:20:00,17.0,12.7,30.21,NW,324,1.0,1.0,83,0.00,,,0.00,0,Wunderground v.1.15,2013-01-07 10:20:00,
2013-01-07 05:22:00,16.9,12.6,30.21,North,360,1.0,4.0,83,0.00,,,0.00,0,Wunderground v.1.15,2013-01-07 10:22:00,
2013-01-07 05:23:00,16.9,12.6,30.20,North,360,1.0,4.0,83,0.00,,,0.00,0,Wunderground v.1.15,2013-01-07 10:23:00,
2013-01-07 05:24:00,17.0,12.7,30.21,North,360,1.0,4.0,83,0.00,,,0.00,0,Wunderground v.1.15,2013-01-07 10:24:00,
2013-01-07 05:25:00,17.0,12.7,30.21,North,5,1.0,4.0,83,0.00,,,0.00,0,Wunderground v.1.15,2013-01-07 10:25:00,
2013-01-07 05:30:00,17.0,12.7,30.20,NNW,346,1.0,4.0,83,0.00,,,0.00,0,Wunderground v.1.15,2013-01-07 10:30:00,
2013-01-07 05:33:00,17.0,12.7,30.20,NW,318,1.0,4.0,83,0.00,,,0.00,0,Wunderground v.1.15,2013-01-07 10:33:00,
2013-01-07 05:36:00,17.0,12.7,30.20,NW,318,1.0,4.0,83,0.00,,,0.00,0,Wunderground v.1.15,2013-01-07 10:36:00,
2013-01-07 05:39:00,17.0,13.0,30.21,NNW,348,0.0,4.0,84,0.00,,,0.00,0,Wunderground v.1.15,2013-01-07 10:39:00,
2013-01-07 05:40:00,17.0,13.0,30.21,North,355,0.0,4.0,84,0.00,,,0.00,0,Wunderground v.1.15,2013-01-07 10:40:00,
2013-01-07 05:44:00,17.1,13.1,30.20,North,355,1.0,4.0,84,0.00,,,0.00,0,Wunderground v.1.15,2013-01-07 10:44:00,
2013-01-07 05:46:00,17.1,13.1,30.20,North,360,1.0,4.0,84,0.00,,,0.00,0,Wunderground v.1.15,2013-01-07 10:46:00,
2013-01-07 05:48:00,17.1,13.1,30.20,North,360,1.0,4.0,84,0.00,,,0.00,0,Wunderground v.1.15,2013-01-07 10:48:00,
2013-01-07 05:50:00,17.1,13.1,30.20,North,360,1.0,1.0,84,0.00,,,0.00,0,Wunderground v.1.15,2013-01-07 10:50:00,
2013-01-07 05:53:00,17.2,13.2,30.20,NNW,341,0.0,4.0,84,0.00,,,0.00,0,Wunderground v.1.15,2013-01-07 10:53:00,
2013-01-07 05:56:00,17.2,13.2,30.20,North,350,0.0,4.0,84,0.00,,,0.00,0,Wunderground v.1.15,2013-01-07 10:56:00,
2013-01-07 05:57:00,17.2,13.5,30.20,NW,325,0.0,4.0,85,0.00,,,0.00,0,Wunderground v.1.15,2013-01-07 10:57:00,
2013-01-07 05:58:00,17.3,13.6,30.20,NNW,347,0.0,4.0,85,0.00,,,0.00,0,Wunderground v.1.15,2013-01-07 10:58:00,
2013-01-07 06:01:00,17.3,13.6,30.19,North,355,0.0,4.0,85,0.00,,,0.00,0,Wunderground v.1.15,2013-01-07 11:01:00,
2013-01-07 06:03:00,17.3,13.6,30.19,North,360,1.0,4.0,85,0.00,,,0.00,0,Wunderground v.1.15,2013-01-07 11:03:00,
2013-01-07 06:05:00,17.4,13.7,30.19,North,355,1.0,4.0,85,0.00,,,0.00,0,Wunderground v.1.15,2013-01-07 11:05:00,
2013-01-07 06:08:00,17.4,13.7,30.19,NNE,20,1.0,4.0,85,0.00,,,0.00,0,Wunderground v.1.15,2013-01-07 11:08:00,
2013-01-07 06:10:00,17.4,13.7,30.19,NNW,339,1.0,1.0,85,0.00,,,0.00,0,Wunderground v.1.15,2013-01-07 11:10:00,
2013-01-07 06:11:00,17.5,13.8,30.19,North,360,1.0,4.0,85,0.00,,,0.00,0,Wunderground v.1.15,2013-01-07 11:11:00,
2013-01-07 06:14:00,17.5,13.8,30.19,North,351,1.0,4.0,85,0.00,,,0.00,0,Wunderground v.1.15,2013-01-07 11:14:00,
2013-01-07 06:15:00,17.5,13.8,30.19,North,360,1.0,4.0,85,0.00,,,0.00,0,Wunderground v.1.15,2013-01-07 11:15:00,
2013-01-07 06:21:00,17.5,14.0,30.19,North,5,1.0,4.0,86,0.00,,,0.00,0,Wunderground v.1.15,2013-01-07 11:21:00,
2013-01-07 06:22:00,17.6,14.1,30.19,North,11,1.0,4.0,86,0.00,,,0.00,0,Wunderground v.1.15,2013-01-07 11:22:00,
2013-01-07 06:25:00,17.6,14.1,30.19,North,5,1.0,4.0,86,0.00,,,0.00,0,Wunderground v.1.15,2013-01-07 11:25:00,
2013-01-07 06:27:00,17.6,14.1,30.18,NNW,343,1.0,5.0,86,0.00,,,0.00,0,Wunderground v.1.15,2013-01-07 11:27:00,
2013-01-07 06:28:00,17.7,14.2,30.18,North,355,1.0,5.0,86,0.00,,,0.00,0,Wunderground v.1.15,2013-01-07 11:28:00,
2013-01-07 06:29:00,17.7,14.2,30.18,NNW,345,1.0,5.0,86,0.00,,,0.00,0,Wunderground v.1.15,2013-01-07 11:29:00,
2013-01-07 06:30:00,17.7,14.2,30.18,NNW,333,1.0,1.0,86,0.00,,,0.00,0,Wunderground v.1.15,2013-01-07 11:30:00,
2013-01-07 06:35:00,17.8,14.3,30.17,North,355,2.0,5.0,86,0.00,,,0.00,0,Wunderground v.1.15,2013-01-07 11:35:00,
2013-01-07 06:38:00,17.9,14.4,30.17,North,5,2.0,5.0,86,0.00,,,0.00,0,Wunderground v.1.15,2013-01-07 11:38:00,
2013-01-07 06:41:00,18.0,14.8,30.17,North,351,2.0,4.0,87,0.00,,,0.00,0,Wunderground v.1.15,2013-01-07 11:41:00,
2013-01-07 06:43:00,18.0,14.8,30.16,North,360,2.0,4.0,87,0.00,,,0.00,0,Wunderground v.1.15,2013-01-07 11:43:00,
2013-01-07 06:48:00,18.1,14.9,30.16,North,11,2.0,4.0,87,0.00,,,0.00,0,Wunderground v.1.15,2013-01-07 11:48:00,
2013-01-07 06:49:00,18.2,15.0,30.16,North,355,2.0,4.0,87,0.00,,,0.00,0,Wunderground v.1.15,2013-01-07 11:49:00,
2013-01-07 06:50:00,18.2,15.0,30.17,North,350,2.0,4.0,87,0.00,,,0.00,0,Wunderground v.1.15,2013-01-07 11:50:00,
2013-01-07 06:53:00,18.3,15.1,30.16,NNW,341,1.0,4.0,87,0.00,,,0.00,0,Wunderground v.1.15,2013-01-07 11:53:00,
2013-01-07 06:55:00,18.3,15.1,30.16,NNE,22,2.0,4.0,87,0.00,,,0.00,0,Wunderground v.1.15,2013-01-07 11:55:00,
2013-01-07 06:58:00,18.4,15.2,30.15,NNE,12,1.0,4.0,87,0.00,,,0.00,0,Wunderground v.1.15,2013-01-07 11:58:00,
2013-01-07 06:59:00,18.4,15.2,30.15,North,5,1.0,4.0,87,0.00,,,0.00,0,Wunderground v.1.15,2013-01-07 11:59:00,
2013-01-07 07:00:00,18.5,15.3,30.15,North,355,1.0,4.0,87,0.00,,,0.00,0,Wunderground v.1.15,2013-01-07 12:00:00,
2013-01-07 07:02:00,18.5,15.3,30.15,North,5,1.0,4.0,87,0.00,,,0.00,0,Wunderground v.1.15,2013-01-07 12:02:00,
2013-01-07 07:06:00,18.7,15.5,30.15,North,360,1.0,4.0,87,0.00,,,0.00,0,Wunderground v.1.15,2013-01-07 12:06:00,
2013-01-07 07:07:00,18.7,15.5,30.15,North,360,1.0,4.0,87,0.00,,,0.00,0,Wunderground v.1.15,2013-01-07 12:07:00,
2013-01-07 07:08:00,18.8,15.8,30.15,North,5,1.0,4.0,88,0.00,,,0.00,0,Wunderground v.1.15,2013-01-07 12:08:00,
2013-01-07 07:12:00,18.9,15.9,30.16,NNW,331,1.0,4.0,88,0.00,,,0.00,0,Wunderground v.1.15,2013-01-07 12:12:00,
2013-01-07 07:13:00,19.0,16.0,30.16,NNW,344,0.0,4.0,88,0.00,,,0.00,0,Wunderground v.1.15,2013-01-07 12:13:00,
2013-01-07 07:14:00,19.0,16.0,30.16,NNW,344,1.0,4.0,88,0.00,,,0.00,0,Wunderground v.1.15,2013-01-07 12:14:00,
2013-01-07 07:19:00,19.2,16.2,30.15,North,9,0.0,4.0,88,0.00,,,0.00,0,Wunderground v.1.15,2013-01-07 12:19:00,
2013-01-07 07:20:00,19.3,16.3,30.15,North,9,0.0,4.0,88,0.00,,,0.00,0,Wunderground v.1.15,2013-01-07 12:20:00,
2013-01-07 07:21:00,19.4,16.4,30.15,NNE,16,0.0,4.0,88,0.00,,,0.00,0,Wunderground v.1.15,2013-01-07 12:21:00,
2013-01-07 07:22:00,19.4,16.4,30.15,NNE,16,0.0,4.0,88,0.00,,,0.00,0,Wunderground v.1.15,2013-01-07 12:22:00,
2013-01-07 07:27:00,19.7,17.0,30.15,North,355,1.0,4.0,89,0.00,,,0.00,0,Wunderground v.1.15,2013-01-07 12:27:00,
2013-01-07 07:28:00,19.8,17.1,30.15,North,360,1.0,4.0,89,0.00,,,0.00,0,Wunderground v.1.15,2013-01-07 12:28:00,
2013-01-07 07:31:00,20.0,17.3,30.15,North,360,1.0,4.0,89,0.00,,,0.00,0,Wunderground v.1.15,2013-01-07 12:31:00,
2013-01-07 07:33:00,20.2,17.5,30.15,North,360,1.0,4.0,89,0.00,,,0.00,0,Wunderground v.1.15,2013-01-07 12:33:00,
2013-01-07 07:34:00,20.2,17.5,30.15,North,355,1.0,4.0,89,0.00,,,0.00,0,Wunderground v.1.15,2013-01-07 12:34:00,
2013-01-07 07:37:00,20.5,17.8,30.15,NNE,12,1.0,4.0,89,0.00,,,0.00,0,Wunderground v.1.15,2013-01-07 12:37:00,
2013-01-07 07:41:00,20.7,18.0,30.15,North,9,1.0,4.0,89,0.00,,,0.00,0,Wunderground v.1.15,2013-01-07 12:41:00,
2013-01-07 07:46:00,21.0,18.3,30.14,North,11,1.0,4.0,89,0.00,,,0.00,0,Wunderground v.1.15,2013-01-07 12:46:00,
2013-01-07 07:47:00,21.1,18.4,30.14,North,11,1.0,4.0,89,0.00,,,0.00,0,Wunderground v.1.15,2013-01-07 12:47:00,
2013-01-07 07:51:00,21.3,18.6,30.14,NNE,22,1.0,4.0,89,0.00,,,0.00,0,Wunderground v.1.15,2013-01-07 12:51:00,
2013-01-07 07:53:00,21.4,18.7,30.13,North,360,1.0,4.0,89,0.00,,,0.00,0,Wunderground v.1.15,2013-01-07 12:53:00,
2013-01-07 07:56:00,21.6,18.9,30.13,North,5,2.0,4.0,89,0.00,,,0.00,0,Wunderground v.1.15,2013-01-07 12:56:00,
2013-01-07 07:57:00,21.7,19.0,30.13,North,360,2.0,4.0,89,0.00,,,0.00,0,Wunderground v.1.15,2013-01-07 12:57:00,
2013-01-07 08:01:00,21.8,19.1,30.13,ENE,62,2.0,4.0,89,0.00,,,0.00,0,Wunderground v.1.15,2013-01-07 13:01:00,
2013-01-07 08:04:00,22.0,19.3,30.13,North,9,2.0,4.0,89,0.00,,,0.00,0,Wunderground v.1.15,2013-01-07 13:04:00,
2013-01-07 08:06:00,22.2,19.5,30.12,NNE,17,2.0,4.0,89,0.00,,,0.00,0,Wunderground v.1.15,2013-01-07 13:06:00,
2013-01-07 08:08:00,22.3,19.6,30.13,ENE,61,1.0,4.0,89,0.00,,,0.00,0,Wunderground v.1.15,2013-01-07 13:08:00,
2013-01-07 08:09:00,22.4,19.6,30.12,North,360,1.0,5.0,89,0.00,,,0.00,0,Wunderground v.1.15,2013-01-07 13:09:00,
2013-01-07 08:11:00,22.5,19.7,30.12,North,360,1.0,4.0,89,0.00,,,0.00,0,Wunderground v.1.15,2013-01-07 13:11:00,
2013-01-07 08:14:00,22.7,19.9,30.12,North,5,2.0,4.0,89,0.00,,,0.00,0,Wunderground v.1.15,2013-01-07 13:14:00,
2013-01-07 08:15:00,22.8,20.0,30.12,NNE,15,2.0,4.0,89,0.00,,,0.00,0,Wunderground v.1.15,2013-01-07 13:15:00,
2013-01-07 08:17:00,22.9,20.4,30.12,North,10,2.0,4.0,90,0.00,,,0.00,0,Wunderground v.1.15,2013-01-07 13:17:00,
2013-01-07 08:19:00,23.0,20.5,30.12,NE,40,2.0,4.0,90,0.00,,,0.00,0,Wunderground v.1.15,2013-01-07 13:19:00,
2013-01-07 08:23:00,23.3,20.8,30.12,North,355,1.0,4.0,90,0.00,,,0.00,0,Wunderground v.1.15,2013-01-07 13:23:00,
2013-01-07 08:24:00,23.4,20.9,30.12,North,360,1.0,4.0,90,0.00,,,0.00,0,Wunderground v.1.15,2013-01-07 13:24:00,
2013-01-07 08:26:00,23.5,21.0,30.12,North,5,1.0,4.0,90,0.00,,,0.00,0,Wunderground v.1.15,2013-01-07 13:26:00,
2013-01-07 08:30:00,23.8,21.3,30.12,North,355,1.0,1.0,90,0.00,,,0.00,0,Wunderground v.1.15,2013-01-07 13:30:00,
2013-01-07 08:31:00,23.9,21.4,30.12,NNW,340,1.0,4.0,90,0.00,,,0.00,0,Wunderground v.1.15,2013-01-07 13:31:00,
2013-01-07 08:35:00,24.2,21.7,30.12,NNE,14,1.0,4.0,90,0.00,,,0.00,0,Wunderground v.1.15,2013-01-07 13:35:00,
2013-01-07 08:37:00,24.4,21.9,30.12,West,279,1.0,4.0,90,0.00,,,0.00,0,Wunderground v.1.15,2013-01-07 13:37:00,
2013-01-07 08:40:00,24.6,22.1,30.12,North,355,1.0,1.0,90,0.00,,,0.00,0,Wunderground v.1.15,2013-01-07 13:40:00,
2013-01-07 08:42:00,24.8,22.3,30.11,ESE,109,1.0,4.0,90,0.00,,,0.00,0,Wunderground v.1.15,2013-01-07 13:42:00,
2013-01-07 08:46:00,25.1,22.6,30.11,NE,44,1.0,4.0,90,0.00,,,0.00,5,Wunderground v.1.15,2013-01-07 13:46:00,
2013-01-07 08:47:00,25.2,22.7,30.11,ENE,71,1.0,4.0,90,0.00,,,0.00,5,Wunderground v.1.15,2013-01-07 13:47:00,
2013-01-07 08:48:00,25.2,22.7,30.11,ENE,76,1.0,4.0,90,0.00,,,0.00,5,Wunderground v.1.15,2013-01-07 13:48:00,
2013-01-07 08:49:00,25.3,22.8,30.11,North,5,1.0,4.0,90,0.00,,,0.00,5,Wunderground v.1.15,2013-01-07 13:49:00,
2013-01-07 08:53:00,25.4,22.9,30.11,NNE,17,1.0,4.0,90,0.00,,,0.00,7,Wunderground v.1.15,2013-01-07 13:53:00,
2013-01-07 08:54:00,25.4,22.9,30.11,NNE,16,1.0,4.0,90,0.00,,,0.00,7,Wunderground v.1.15,2013-01-07 13:54:00,
2013-01-07 08:56:00,25.5,23.0,30.11,East,86,1.0,4.0,90,0.00,,,0.00,7,Wunderground v.1.15,2013-01-07 13:56:00,
2013-01-07 08:57:00,25.6,23.1,30.11,NE,49,0.0,4.0,90,0.00,,,0.00,7,Wunderground v.1.15,2013-01-07 13:57:00,
2013-01-07 08:59:00,25.7,23.2,30.11,North,360,0.0,4.0,90,0.00,,,0.00,9,Wunderground v.1.15,2013-01-07 13:59:00,
2013-01-07 09:02:00,25.8,23.3,30.11,NNE,12,0.0,4.0,90,0.00,,,0.00,9,Wunderground v.1.15,2013-01-07 14:02:00,
2013-01-07 09:03:00,25.9,23.4,30.10,NNE,22,0.0,4.0,90,0.00,,,0.00,11,Wunderground v.1.15,2013-01-07 14:03:00,
2013-01-07 09:06:00,26.1,23.6,30.11,North,350,0.0,4.0,90,0.00,,,0.00,7,Wunderground v.1.15,2013-01-07 14:06:00,
2013-01-07 09:07:00,26.1,23.6,30.11,North,350,0.0,4.0,90,0.00,,,0.00,7,Wunderground v.1.15,2013-01-07 14:07:00,
2013-01-07 09:08:00,26.2,23.7,30.11,North,350,0.0,4.0,90,0.00,,,0.00,7,Wunderground v.1.15,2013-01-07 14:08:00,
2013-01-07 09:11:00,26.3,23.8,30.11,NNE,19,0.0,4.0,90,0.00,,,0.00,9,Wunderground v.1.15,2013-01-07 14:11:00,
2013-01-07 09:13:00,26.5,24.0,30.11,North,5,0.0,4.0,90,0.00,,,0.00,9,Wunderground v.1.15,2013-01-07 14:13:00,
2013-01-07 09:16:00,26.6,24.1,30.10,North,355,0.0,4.0,90,0.00,,,0.00,9,Wunderground v.1.15,2013-01-07 14:16:00,
2013-01-07 09:19:00,26.9,24.4,30.10,NE,43,0.0,4.0,90,0.00,,,0.00,12,Wunderground v.1.15,2013-01-07 14:19:00,
2013-01-07 09:20:00,26.9,24.1,30.10,ENE,71,0.0,4.0,89,0.00,,,0.00,18,Wunderground v.1.15,2013-01-07 14:20:00,
2013-01-07 09:23:00,27.1,24.3,30.10,North,5,0.0,4.0,89,0.00,,,0.00,21,Wunderground v.1.15,2013-01-07 14:23:00,
2013-01-07 09:27:00,27.4,24.6,30.10,NNW,331,0.0,4.0,89,0.00,,,0.00,18,Wunderground v.1.15,2013-01-07 14:27:00,
2013-01-07 09:29:00,27.5,24.7,30.10,NNW,333,0.0,4.0,89,0.00,,,0.00,18,Wunderground v.1.15,2013-01-07 14:29:00,
2013-01-07 09:33:00,27.7,24.6,30.10,North,360,0.0,4.0,88,0.00,,,0.00,19,Wunderground v.1.15,2013-01-07 14:33:00,
2013-01-07 09:35:00,27.8,24.7,30.09,North,5,0.0,4.0,88,0.00,,,0.00,21,Wunderground v.1.15,2013-01-07 14:35:00,
2013-01-07 09:37:00,28.0,24.9,30.09,NW,321,0.0,4.0,88,0.00,,,0.00,23,Wunderground v.1.15,2013-01-07 14:37:00,
2013-01-07 09:38:00,28.0,24.9,30.09,NW,321,0.0,4.0,88,0.00,,,0.00,25,Wunderground v.1.15,2013-01-07 14:38:00,
2013-01-07 09:41:00,28.2,25.1,30.09,NNW,335,0.0,4.0,88,0.00,,,0.00,26,Wunderground v.1.15,2013-01-07 14:41:00,
2013-01-07 09:42:00,28.2,24.8,30.10,NNW,335,0.0,4.0,87,0.00,,,0.00,26,Wunderground v.1.15,2013-01-07 14:42:00,
2013-01-07 09:46:00,28.4,25.0,30.09,North,5,0.0,4.0,87,0.00,,,0.00,26,Wunderground v.1.15,2013-01-07 14:46:00,
2013-01-07 09:47:00,28.5,25.1,30.09,North,5,0.0,4.0,87,0.00,,,0.00,30,Wunderground v.1.15,2013-01-07 14:47:00,
2013-01-07 09:50:00,28.7,25.3,30.10,NW,312,0.0,4.0,87,0.00,,,0.00,33,Wunderground v.1.15,2013-01-07 14:50:00,
2013-01-07 09:51:00,28.7,25.3,30.09,NW,312,0.0,4.0,87,0.00,,,0.00,33,Wunderground v.1.15,2013-01-07 14:51:00,
2013-01-07 09:53:00,28.9,25.5,30.10,NW,312,0.0,4.0,87,0.00,,,0.00,30,Wunderground v.1.15,2013-01-07 14:53:00,
2013-01-07 09:55:00,28.9,25.5,30.09,North,5,0.0,4.0,87,0.00,,,0.00,28,Wunderground v.1.15,2013-01-07 14:55:00,
2013-01-07 09:57:00,29.1,25.4,30.09,North,355,0.0,4.0,86,0.00,,,0.00,40,Wunderground v.1.15,2013-01-07 14:57:00,
2013-01-07 10:01:00,29.3,25.6,30.09,North,355,0.0,4.0,86,0.00,,,0.00,35,Wunderground v.1.15,2013-01-07 15:01:00,
2013-01-07 10:03:00,29.4,25.7,30.09,North,9,0.0,4.0,86,0.00,,,0.00,33,Wunderground v.1.15,2013-01-07 15:03:00,
2013-01-07 10:05:00,29.4,25.7,30.09,North,5,0.0,4.0,86,0.00,,,0.00,40,Wunderground v.1.15,2013-01-07 15:05:00,
2013-01-07 10:06:00,29.5,25.8,30.09,North,9,0.0,4.0,86,0.00,,,0.00,44,Wunderground v.1.15,2013-01-07 15:06:00,
2013-01-07 10:09:00,29.6,25.9,30.09,North,5,0.0,4.0,86,0.00,,,0.00,37,Wunderground v.1.15,2013-01-07 15:09:00,
2013-01-07 10:11:00,29.7,26.0,30.08,WNW,303,0.0,4.0,86,0.00,,,0.00,42,Wunderground v.1.15,2013-01-07 15:11:00,
2013-01-07 10:14:00,29.8,25.8,30.08,NW,317,0.0,4.0,85,0.00,,,0.00,47,Wunderground v.1.15,2013-01-07 15:14:00,
2013-01-07 10:16:00,29.9,25.9,30.08,ENE,67,0.0,4.0,85,0.00,,,0.00,42,Wunderground v.1.15,2013-01-07 15:16:00,
2013-01-07 10:17:00,29.9,25.9,30.08,North,5,0.0,4.0,85,0.00,,,0.00,44,Wunderground v.1.15,2013-01-07 15:17:00,
2013-01-07 10:19:00,30.1,26.1,30.08,NNW,346,0.0,4.0,85,0.00,,,0.00,49,Wunderground v.1.15,2013-01-07 15:19:00,
2013-01-07 10:22:00,30.2,26.2,30.08,NW,309,0.0,4.0,85,0.00,,,0.00,51,Wunderground v.1.15,2013-01-07 15:22:00,
2013-01-07 10:23:00,30.3,26.3,30.08,North,355,0.0,4.0,85,0.00,,,0.00,51,Wunderground v.1.15,2013-01-07 15:23:00,
2013-01-07 10:28:00,30.5,26.5,30.08,NNW,340,0.0,4.0,85,0.00,,,0.00,54,Wunderground v.1.15,2013-01-07 15:28:00,
2013-01-07 10:29:00,30.5,26.5,30.07,North,360,0.0,4.0,85,0.00,,,0.00,60,Wunderground v.1.15,2013-01-07 15:29:00,
2013-01-07 10:30:00,30.6,26.6,30.07,North,355,0.0,9.0,85,0.00,,,0.00,56,Wunderground v.1.15,2013-01-07 15:30:00,
2013-01-07 10:31:00,30.6,26.6,30.07,North,5,0.0,9.0,85,0.00,,,0.00,63,Wunderground v.1.15,2013-01-07 15:31:00,
2013-01-07 10:35:00,30.8,26.8,30.07,NNW,343,0.0,9.0,85,0.00,,,0.00,58,Wunderground v.1.15,2013-01-07 15:35:00,
2013-01-07 10:36:00,30.8,26.5,30.07,North,5,0.0,9.0,84,0.00,,,0.00,53,Wunderground v.1.15,2013-01-07 15:36:00,
2013-01-07 10:39:00,30.9,26.6,30.07,North,360,0.0,9.0,84,0.00,,,0.00,49,Wunderground v.1.15,2013-01-07 15:39:00,
2013-01-07 10:40:00,31.0,26.7,30.07,North,360,0.0,4.0,84,0.00,,,0.00,49,Wunderground v.1.15,2013-01-07 15:40:00,
2013-01-07 10:41:00,31.0,26.7,30.06,NNE,21,0.0,4.0,84,0.00,,,0.00,49,Wunderground v.1.15,2013-01-07 15:41:00,
2013-01-07 10:42:00,31.0,26.7,30.07,North,5,0.0,4.0,84,0.00,,,0.00,47,Wunderground v.1.15,2013-01-07 15:42:00,
2013-01-07 10:47:00,31.1,26.8,30.06,North,355,0.0,4.0,84,0.00,,,0.00,56,Wunderground v.1.15,2013-01-07 15:47:00,
2013-01-07 10:49:00,31.1,26.8,30.06,North,355,0.0,4.0,84,0.00,,,0.00,60,Wunderground v.1.15,2013-01-07 15:49:00,
2013-01-07 10:50:00,31.2,26.6,30.06,NNW,329,0.0,4.0,83,0.00,,,0.00,58,Wunderground v.1.15,2013-01-07 15:50:00,
2013-01-07 10:52:00,31.2,26.6,30.06,North,5,0.0,4.0,83,0.00,,,0.00,81,Wunderground v.1.15,2013-01-07 15:52:00,
2013-01-07 10:56:00,31.3,26.7,30.06,NNW,343,0.0,4.0,83,0.00,,,0.00,76,Wunderground v.1.15,2013-01-07 15:56:00,
2013-01-07 10:59:00,31.4,27.1,30.06,NNE,30,0.0,4.0,84,0.00,,,0.00,77,Wunderground v.1.15,2013-01-07 15:59:00,
2013-01-07 11:03:00,31.5,27.2,30.05,NNW,344,0.0,4.0,84,0.00,,,0.00,97,Wunderground v.1.15,2013-01-07 16:03:00,
2013-01-07 11:04:00,31.5,27.2,30.04,North,355,0.0,4.0,84,0.00,,,0.00,83,Wunderground v.1.15,2013-01-07 16:04:00,
2013-01-07 11:06:00,31.6,27.3,30.04,North,355,0.0,4.0,84,0.00,,,0.00,100,Wunderground v.1.15,2013-01-07 16:06:00,
2013-01-07 11:07:00,31.6,27.3,30.04,NNW,342,0.0,4.0,84,0.00,,,0.00,90,Wunderground v.1.15,2013-01-07 16:07:00,
2013-01-07 11:12:00,31.8,27.5,30.03,NW,326,0.0,4.0,84,0.00,,,0.00,100,Wunderground v.1.15,2013-01-07 16:12:00,
2013-01-07 11:14:00,31.9,27.3,30.03,NNW,338,1.0,4.0,83,0.00,,,0.00,90,Wunderground v.1.15,2013-01-07 16:14:00,
2013-01-07 11:18:00,32.0,27.4,30.02,North,5,1.0,4.0,83,0.00,,,0.00,74,Wunderground v.1.15,2013-01-07 16:18:00,
2013-01-07 11:19:00,32.0,27.4,30.02,NNW,335,1.0,4.0,83,0.00,,,0.00,77,Wunderground v.1.15,2013-01-07 16:19:00,
2013-01-07 11:23:00,32.1,27.5,30.02,NNW,344,1.0,4.0,83,0.00,,,0.00,65,Wunderground v.1.15,2013-01-07 16:23:00,
2013-01-07 11:25:00,32.1,27.5,30.02,WNW,302,1.0,4.0,83,0.00,,,0.00,69,Wunderground v.1.15,2013-01-07 16:25:00,
2013-01-07 11:29:00,32.2,27.6,30.01,NNW,347,0.0,4.0,83,0.00,,,0.00,69,Wunderground v.1.15,2013-01-07 16:29:00,
2013-01-07 11:30:00,32.2,27.6,30.01,North,351,0.0,4.0,83,0.00,,,0.00,76,Wunderground v.1.15,2013-01-07 16:30:00,
2013-01-07 11:32:00,32.2,27.3,30.01,NW,319,0.0,4.0,82,0.00,,,0.00,74,Wunderground v.1.15,2013-01-07 16:32:00,
2013-01-07 11:35:00,32.3,27.7,30.00,WNW,299,0.0,4.0,83,0.00,,,0.00,84,Wunderground v.1.15,2013-01-07 16:35:00,
2013-01-07 11:37:00,32.3,27.4,30.00,North,350,1.0,7.0,82,0.00,,,0.00,76,Wunderground v.1.15,2013-01-07 16:37:00,
2013-01-07 11:39:00,32.3,27.4,30.00,North,349,1.0,7.0,82,0.00,,,0.00,67,Wunderground v.1.15,2013-01-07 16:39:00,
2013-01-07 11:40:00,32.3,27.4,30.00,NNW,329,1.0,1.0,82,0.00,,,0.00,83,Wunderground v.1.15,2013-01-07 16:40:00,
2013-01-07 11:42:00,32.3,27.4,29.99,NNE,33,1.0,4.0,82,0.00,,,0.00,100,Wunderground v.1.15,2013-01-07 16:42:00,
2013-01-07 11:43:00,32.4,27.8,29.99,WNW,285,1.0,4.0,83,0.00,,,0.00,102,Wunderground v.1.15,2013-01-07 16:43:00,
2013-01-07 11:48:00,32.5,27.6,29.99,NNE,30,1.0,4.0,82,0.00,,,0.00,169,Wunderground v.1.15,2013-01-07 16:48:00,
2013-01-07 11:49:00,32.5,27.6,29.98,NW,311,1.0,4.0,82,0.00,,,0.00,176,Wunderground v.1.15,2013-01-07 16:49:00,
2013-01-07 11:51:00,32.6,27.7,29.98,SSW,202,1.0,4.0,82,0.00,,,0.00,113,Wunderground v.1.15,2013-01-07 16:51:00,
2013-01-07 11:53:00,32.6,28.0,29.98,NNW,347,1.0,4.0,83,0.00,,,0.00,130,Wunderground v.1.15,2013-01-07 16:53:00,
2013-01-07 11:55:00,32.8,27.9,29.98,NNE,26,1.0,5.0,82,0.00,,,0.00,153,Wunderground v.1.15,2013-01-07 16:55:00,
2013-01-07 11:58:00,32.8,27.9,29.98,SSE,147,1.0,6.0,82,0.00,,,0.00,151,Wunderground v.1.15,2013-01-07 16:58:00,
2013-01-07 11:59:00,32.9,28.0,29.98,NW,304,1.0,6.0,82,0.00,,,0.00,139,Wunderground v.1.15,2013-01-07 16:59:00,
2013-01-07 12:04:00,33.1,28.2,29.97,NE,51,1.0,4.0,82,0.00,,,0.00,123,Wunderground v.1.15,2013-01-07 17:04:00,
2013-01-07 12:06:00,33.2,28.3,29.97,WSW,255,1.0,4.0,82,0.00,,,0.00,130,Wunderground v.1.15,2013-01-07 17:06:00,
2013-01-07 12:07:00,33.2,28.3,29.98,NW,309,1.0,4.0,82,0.00,,,0.00,100,Wunderground v.1.15,2013-01-07 17:07:00,
2013-01-07 12:08:00,33.2,28.0,29.97,NW,316,1.0,4.0,81,0.00,,,0.00,97,Wunderground v.1.15,2013-01-07 17:08:00,
2013-01-07 12:14:00,33.3,28.1,29.97,SSE,156,1.0,7.0,81,0.00,,,0.00,116,Wunderground v.1.15,2013-01-07 17:14:00,
2013-01-07 12:15:00,33.3,28.1,29.97,NNW,340,1.0,7.0,81,0.00,,,0.00,134,Wunderground v.1.15,2013-01-07 17:15:00,
2013-01-07 12:21:00,33.4,28.2,29.96,NNW,332,1.0,4.0,81,0.00,,,0.00,123,Wunderground v.1.15,2013-01-07 17:21:00,
2013-01-07 12:22:00,33.4,28.2,29.96,South,169,1.0,4.0,81,0.00,,,0.00,130,Wunderground v.1.15,2013-01-07 17:22:00,
2013-01-07 12:24:00,33.5,28.3,29.95,NNW,344,1.0,4.0,81,0.00,,,0.00,93,Wunderground v.1.15,2013-01-07 17:24:00,
2013-01-07 12:29:00,33.5,28.3,29.95,North,355,1.0,4.0,81,0.00,,,0.00,127,Wunderground v.1.15,2013-01-07 17:29:00,
2013-01-07 12:30:00,33.5,28.3,29.95,ENE,77,1.0,4.0,81,0.00,,,0.00,125,Wunderground v.1.15,2013-01-07 17:30:00,
2013-01-07 12:31:00,33.6,28.4,29.94,North,360,1.0,4.0,81,0.00,,,0.00,116,Wunderground v.1.15,2013-01-07 17:31:00,
2013-01-07 12:34:00,33.6,28.4,29.94,NNE,23,1.0,4.0,81,0.00,,,0.00,109,Wunderground v.1.15,2013-01-07 17:34:00,
2013-01-07 12:35:00,33.6,28.4,29.94,NW,317,1.0,4.0,81,0.00,,,0.00,91,Wunderground v.1.15,2013-01-07 17:35:00,
2013-01-07 12:36:00,33.7,28.5,29.93,North,9,1.0,4.0,81,0.00,,,0.00,102,Wunderground v.1.15,2013-01-07 17:36:00,
2013-01-07 12:39:00,33.7,28.5,29.93,NW,323,2.0,4.0,81,0.00,,,0.00,153,Wunderground v.1.15,2013-01-07 17:39:00,
2013-01-07 12:42:00,33.8,28.6,29.93,NNW,342,2.0,4.0,81,0.00,,,0.00,104,Wunderground v.1.15,2013-01-07 17:42:00,
2013-01-07 12:43:00,33.9,28.7,29.93,North,5,2.0,6.0,81,0.00,,,0.00,128,Wunderground v.1.15,2013-01-07 17:43:00,
2013-01-07 12:47:00,34.0,28.8,29.92,NNW,333,2.0,6.0,81,0.00,,,0.00,113,Wunderground v.1.15,2013-01-07 17:47:00,
2013-01-07 12:48:00,34.0,28.8,29.92,NW,309,2.0,6.0,81,0.00,,,0.00,95,Wunderground v.1.15,2013-01-07 17:48:00,
2013-01-07 12:49:00,34.0,28.8,29.92,West,263,2.0,6.0,81,0.00,,,0.00,77,Wunderground v.1.15,2013-01-07 17:49:00,
2013-01-07 12:54:00,34.2,29.0,29.92,NNE,12,2.0,4.0,81,0.00,,,0.00,107,Wunderground v.1.15,2013-01-07 17:54:00,
2013-01-07 12:55:00,34.3,29.1,29.92,NNW,344,2.0,4.0,81,0.00,,,0.00,123,Wunderground v.1.15,2013-01-07 17:55:00,
2013-01-07 12:56:00,34.3,29.1,29.92,West,273,2.0,4.0,81,0.00,,,0.00,76,Wunderground v.1.15,2013-01-07 17:56:00,
2013-01-07 12:59:00,34.4,28.9,29.92,NNW,337,2.0,5.0,80,0.00,,,0.00,128,Wunderground v.1.15,2013-01-07 17:59:00,
2013-01-07 13:01:00,34.5,29.0,29.91,SE,136,2.0,4.0,80,0.00,,,0.00,102,Wunderground v.1.15,2013-01-07 18:01:00,
2013-01-07 13:04:00,34.6,29.1,29.91,SW,216,1.0,4.0,80,0.00,,,0.00,135,Wunderground v.1.15,2013-01-07 18:04:00,
2013-01-07 13:07:00,34.7,29.2,29.91,NNW,328,1.0,4.0,80,0.00,,,0.00,132,Wunderground v.1.15,2013-01-07 18:07:00,
2013-01-07 13:11:00,34.8,29.3,29.90,NNW,347,2.0,5.0,80,0.00,,,0.00,120,Wunderground v.1.15,2013-01-07 18:11:00,
2013-01-07 13:12:00,34.9,29.4,29.89,SSW,200,2.0,6.0,80,0.00,,,0.00,113,Wunderground v.1.15,2013-01-07 18:12:00,
2013-01-07 13:13:00,34.9,29.4,29.90,NW,321,2.0,6.0,80,0.00,,,0.00,116,Wunderground v.1.15,2013-01-07 18:13:00,
2013-01-07 13:16:00,35.0,29.1,29.89,WNW,298,2.0,6.0,79,0.00,,,0.00,134,Wunderground v.1.15,2013-01-07 18:16:00,
2013-01-07 13:17:00,35.1,29.2,29.89,NW,313,2.0,6.0,79,0.00,,,0.00,97,Wunderground v.1.15,2013-01-07 18:17:00,
2013-01-07 13:18:00,35.1,29.2,29.89,NNW,346,2.0,6.0,79,0.00,,,0.00,88,Wunderground v.1.15,2013-01-07 18:18:00,
2013-01-07 13:21:00,35.1,29.2,29.89,WSW,247,2.0,4.0,79,0.00,,,0.00,113,Wunderground v.1.15,2013-01-07 18:21:00,
2013-01-07 13:27:00,35.3,29.4,29.89,NW,317,2.0,4.0,79,0.00,,,0.00,88,Wunderground v.1.15,2013-01-07 18:27:00,
2013-01-07 13:29:00,35.3,29.4,29.90,North,350,2.0,4.0,79,0.00,,,0.00,76,Wunderground v.1.15,2013-01-07 18:29:00,
2013-01-07 13:31:00,35.3,29.7,29.89,NW,323,2.0,4.0,80,0.00,,,0.00,81,Wunderground v.1.15,2013-01-07 18:31:00,
2013-01-07 13:34:00,35.4,29.8,29.90,WNW,300,1.0,4.0,80,0.00,,,0.00,79,Wunderground v.1.15,2013-01-07 18:34:00,
2013-01-07 13:35:00,35.4,29.8,29.90,West,267,1.0,4.0,80,0.00,,,0.00,84,Wunderground v.1.15,2013-01-07 18:35:00,
2013-01-07 13:37:00,35.4,29.8,29.90,WSW,257,1.0,4.0,80,0.00,,,0.00,53,Wunderground v.1.15,2013-01-07 18:37:00,
2013-01-07 13:40:00,35.4,29.8,29.90,NNW,331,1.0,4.0,80,0.00,,,0.00,49,Wunderground v.1.15,2013-01-07 18:40:00,
2013-01-07 13:41:00,35.4,29.8,29.90,NW,324,1.0,4.0,80,0.00,,,0.00,56,Wunderground v.1.15,2013-01-07 18:41:00,
2013-01-07 13:42:00,35.5,29.9,29.90,WNW,302,1.0,4.0,80,0.00,,,0.00,46,Wunderground v.1.15,2013-01-07 18:42:00,
2013-01-07 13:44:00,35.4,29.8,29.90,SSW,213,1.0,4.0,80,0.00,,,0.00,58,Wunderground v.1.15,2013-01-07 18:44:00,
2013-01-07 13:47:00,35.4,30.1,29.89,North,360,0.0,4.0,81,0.00,,,0.00,53,Wunderground v.1.15,2013-01-07 18:47:00,
2013-01-07 13:48:00,35.5,30.2,29.90,NW,323,0.0,4.0,81,0.00,,,0.00,53,Wunderground v.1.15,2013-01-07 18:48:00,
2013-01-07 13:50:00,35.4,30.1,29.90,NE,53,1.0,1.0,81,0.00,,,0.00,54,Wunderground v.1.15,2013-01-07 18:50:00,
2013-01-07 13:52:00,35.5,30.2,29.89,North,350,1.0,4.0,81,0.00,,,0.00,51,Wunderground v.1.15,2013-01-07 18:52:00,
2013-01-07 13:54:00,35.5,30.2,29.89,NNE,17,1.0,4.0,81,0.00,,,0.00,56,Wunderground v.1.15,2013-01-07 18:54:00,
2013-01-07 13:56:00,35.6,30.3,29.89,NNW,336,1.0,4.0,81,0.00,,,0.00,60,Wunderground v.1.15,2013-01-07 18:56:00,
2013-01-07 13:57:00,35.6,30.3,29.89,North,360,1.0,4.0,81,0.00,,,0.00,62,Wunderground v.1.15,2013-01-07 18:57:00,
2013-01-07 13:59:00,35.6,30.3,29.89,North,5,1.0,4.0,81,0.00,,,0.00,56,Wunderground v.1.15,2013-01-07 18:59:00,
2013-01-07 14:03:00,35.7,30.4,29.89,NNW,330,1.0,4.0,81,0.00,,,0.00,60,Wunderground v.1.15,2013-01-07 19:03:00,
2013-01-07 14:04:00,35.7,30.4,29.89,NNW,328,1.0,4.0,81,0.00,,,0.00,60,Wunderground v.1.15,2013-01-07 19:04:00,
2013-01-07 14:08:00,35.8,30.5,29.88,North,355,1.0,4.0,81,0.00,,,0.00,74,Wunderground v.1.15,2013-01-07 19:08:00,
2013-01-07 14:09:00,35.9,30.6,29.88,NNE,16,1.0,4.0,81,0.00,,,0.00,76,Wunderground v.1.15,2013-01-07 19:09:00,
2013-01-07 14:10:00,35.9,30.6,29.88,North,360,1.0,4.0,81,0.00,,,0.00,77,Wunderground v.1.15,2013-01-07 19:10:00,
2013-01-07 14:15:00,36.0,30.7,29.87,NNE,15,1.0,4.0,81,0.00,,,0.00,86,Wunderground v.1.15,2013-01-07 19:15:00,
2013-01-07 14:16:00,36.0,30.7,29.87,NW,322,1.0,4.0,81,0.00,,,0.00,100,Wunderground v.1.15,2013-01-07 19:16:00,
2013-01-07 14:18:00,36.1,30.8,29.87,North,350,1.0,4.0,81,0.00,,,0.00,98,Wunderground v.1.15,2013-01-07 19:18:00,
2013-01-07 14:19:00,36.1,30.8,29.87,NNW,348,1.0,4.0,81,0.00,,,0.00,105,Wunderground v.1.15,2013-01-07 19:19:00,
2013-01-07 14:22:00,36.2,30.9,29.87,WSW,249,1.0,4.0,81,0.00,,,0.00,102,Wunderground v.1.15,2013-01-07 19:22:00,
2013-01-07 14:23:00,36.2,30.9,29.87,NNW,348,1.0,6.0,81,0.00,,,0.00,77,Wunderground v.1.15,2013-01-07 19:23:00,
2013-01-07 14:25:00,36.3,31.0,29.87,NW,317,1.0,6.0,81,0.00,,,0.00,90,Wunderground v.1.15,2013-01-07 19:25:00,
2013-01-07 14:29:00,36.5,31.2,29.86,NW,313,1.0,6.0,81,0.00,,,0.00,105,Wunderground v.1.15,2013-01-07 19:29:00,
2013-01-07 14:31:00,36.5,31.2,29.86,NW,315,1.0,5.0,81,0.00,,,0.00,107,Wunderground v.1.15,2013-01-07 19:31:00,
2013-01-07 14:33:00,36.6,31.0,29.86,North,11,1.0,5.0,80,0.00,,,0.00,111,Wunderground v.1.15,2013-01-07 19:33:00,
2013-01-07 14:37:00,36.8,31.2,29.86,NNW,334,1.0,5.0,80,0.00,,,0.00,84,Wunderground v.1.15,2013-01-07 19:37:00,
2013-01-07 14:38:00,36.8,31.2,29.86,North,355,1.0,5.0,80,0.00,,,0.00,93,Wunderground v.1.15,2013-01-07 19:38:00,
2013-01-07 14:39:00,36.9,31.3,29.86,North,355,1.0,5.0,80,0.00,,,0.00,86,Wunderground v.1.15,2013-01-07 19:39:00,
2013-01-07 14:43:00,37.1,31.5,29.86,SW,216,1.0,5.0,80,0.00,,,0.00,100,Wunderground v.1.15,2013-01-07 19:43:00,
2013-01-07 14:45:00,37.1,31.5,29.86,WNW,301,1.0,5.0,80,0.00,,,0.00,104,Wunderground v.1.15,2013-01-07 19:45:00,
2013-01-07 14:46:00,37.2,31.3,29.86,NW,319,1.0,5.0,79,0.00,,,0.00,104,Wunderground v.1.15,2013-01-07 19:46:00,
2013-01-07 14:47:00,37.2,31.3,29.86,North,5,1.0,5.0,79,0.00,,,0.00,98,Wunderground v.1.15,2013-01-07 19:47:00,
2013-01-07 14:51:00,37.4,31.5,29.86,NW,315,1.0,2.0,79,0.00,,,0.00,118,Wunderground v.1.15,2013-01-07 19:51:00,
2013-01-07 14:52:00,37.5,31.6,29.86,NW,313,1.0,4.0,79,0.00,,,0.00,146,Wunderground v.1.15,2013-01-07 19:52:00,
2013-01-07 14:53:00,37.5,31.6,29.86,NW,313,1.0,4.0,79,0.00,,,0.00,118,Wunderground v.1.15,2013-01-07 19:53:00,
2013-01-07 14:57:00,37.7,31.5,29.86,NW,319,1.0,4.0,78,0.00,,,0.00,128,Wunderground v.1.15,2013-01-07 19:57:00,
2013-01-07 14:58:00,37.7,31.5,29.86,ESE,113,1.0,4.0,78,0.00,,,0.00,127,Wunderground v.1.15,2013-01-07 19:58:00,
2013-01-07 14:59:00,37.8,31.6,29.86,NW,313,1.0,4.0,78,0.00,,,0.00,127,Wunderground v.1.15,2013-01-07 19:59:00,
2013-01-07 15:00:00,37.8,31.6,29.86,North,10,1.0,1.0,78,0.00,,,0.00,118,Wunderground v.1.15,2013-01-07 20:00:00,
2013-01-07 15:06:00,38.0,31.4,29.86,NW,310,1.0,5.0,77,0.00,,,0.00,86,Wunderground v.1.15,2013-01-07 20:06:00,
2013-01-07 15:08:00,38.1,31.5,29.87,North,350,2.0,5.0,77,0.00,,,0.00,76,Wunderground v.1.15,2013-01-07 20:08:00,
2013-01-07 15:10:00,38.1,31.5,29.86,NE,53,1.0,4.0,77,0.00,,,0.00,83,Wunderground v.1.15,2013-01-07 20:10:00,
2013-01-07 15:12:00,38.1,31.5,29.86,NNW,331,2.0,4.0,77,0.00,,,0.00,90,Wunderground v.1.15,2013-01-07 20:12:00,
2013-01-07 15:15:00,38.1,31.5,29.86,NNW,346,1.0,4.0,77,0.00,,,0.00,102,Wunderground v.1.15,2013-01-07 20:15:00,
2013-01-07 15:16:00,38.1,31.5,29.86,NNW,335,1.0,4.0,77,0.00,,,0.00,86,Wunderground v.1.15,2013-01-07 20:16:00,
2013-01-07 15:17:00,38.1,31.5,29.86,North,5,1.0,4.0,77,0.00,,,0.00,70,Wunderground v.1.15,2013-01-07 20:17:00,
2013-01-07 15:18:00,38.2,31.6,29.86,NNW,336,1.0,4.0,77,0.00,,,0.00,65,Wunderground v.1.15,2013-01-07 20:18:00,
2013-01-07 15:23:00,38.1,31.5,29.86,NNW,340,1.0,4.0,77,0.00,,,0.00,69,Wunderground v.1.15,2013-01-07 20:23:00,
2013-01-07 15:24:00,38.1,31.5,29.86,North,355,1.0,4.0,77,0.00,,,0.00,60,Wunderground v.1.15,2013-01-07 20:24:00,
2013-01-07 15:25:00,38.1,31.5,29.86,NNW,339,1.0,4.0,77,0.00,,,0.00,69,Wunderground v.1.15,2013-01-07 20:25:00,
2013-01-07 15:30:00,38.1,31.5,29.85,West,270,2.0,2.0,77,0.00,,,0.00,81,Wunderground v.1.15,2013-01-07 20:30:00,
2013-01-07 15:31:00,38.1,31.5,29.85,North,5,2.0,4.0,77,0.00,,,0.00,70,Wunderground v.1.15,2013-01-07 20:31:00,
2013-01-07 15:32:00,38.1,31.5,29.86,NW,321,2.0,4.0,77,0.00,,,0.00,63,Wunderground v.1.15,2013-01-07 20:32:00,
2013-01-07 15:35:00,38.1,31.2,29.86,NE,48,2.0,4.0,76,0.00,,,0.00,46,Wunderground v.1.15,2013-01-07 20:35:00,
2013-01-07 15:37:00,38.1,31.2,29.86,ENE,74,2.0,4.0,76,0.00,,,0.00,40,Wunderground v.1.15,2013-01-07 20:37:00,
2013-01-07 15:38:00,38.1,31.5,29.86,WSW,254,2.0,4.0,77,0.00,,,0.00,39,Wunderground v.1.15,2013-01-07 20:38:00,
2013-01-07 15:41:00,38.1,31.5,29.86,South,173,2.0,7.0,77,0.00,,,0.00,67,Wunderground v.1.15,2013-01-07 20:41:00,
2013-01-07 15:43:00,38.1,31.2,29.86,NNE,27,2.0,7.0,76,0.00,,,0.00,37,Wunderground v.1.15,2013-01-07 20:43:00,
2013-01-07 15:44:00,38.1,31.2,29.85,North,355,2.0,7.0,76,0.00,,,0.00,39,Wunderground v.1.15,2013-01-07 20:44:00,
2013-01-07 15:45:00,38.1,31.2,29.86,SW,218,2.0,7.0,76,0.00,,,0.00,42,Wunderground v.1.15,2013-01-07 20:45:00,
2013-01-07 15:49:00,38.0,31.1,29.85,North,355,2.0,7.0,76,0.00,,,0.00,51,Wunderground v.1.15,2013-01-07 20:49:00,
2013-01-07 15:53:00,38.0,31.1,29.85,North,355,2.0,8.0,76,0.00,,,0.00,67,Wunderground v.1.15,2013-01-07 20:53:00,
2013-01-07 15:55:00,38.0,31.1,29.85,West,265,3.0,8.0,76,0.00,,,0.00,60,Wunderground v.1.15,2013-01-07 20:55:00,
2013-01-07 15:57:00,38.0,31.1,29.85,NNW,340,3.0,8.0,76,0.00,,,0.00,54,Wunderground v.1.15,2013-01-07 20:57:00,
2013-01-07 16:02:00,37.9,31.0,29.85,NNW,331,2.0,4.0,76,0.00,,,0.00,40,Wunderground v.1.15,2013-01-07 21:02:00,
2013-01-07 16:06:00,37.9,31.3,29.85,NNE,24,3.0,7.0,77,0.00,,,0.00,33,Wunderground v.1.15,2013-01-07 21:06:00,
2013-01-07 16:07:00,37.9,31.3,29.84,NNW,340,2.0,7.0,77,0.00,,,0.00,33,Wunderground v.1.15,2013-01-07 21:07:00,
2013-01-07 16:12:00,37.9,31.3,29.84,NW,310,4.0,4.0,77,0.00,,,0.00,28,Wunderground v.1.15,2013-01-07 21:12:00,
2013-01-07 16:16:00,37.9,31.3,29.85,North,360,4.0,5.0,77,0.00,,,0.00,23,Wunderground v.1.15,2013-01-07 21:16:00,
2013-01-07 16:17:00,37.9,31.3,29.85,South,182,4.0,5.0,77,0.00,,,0.00,21,Wunderground v.1.15,2013-01-07 21:17:00,
2013-01-07 16:21:00,37.9,31.3,29.85,NW,319,3.0,4.0,77,0.00,,,0.00,12,Wunderground v.1.15,2013-01-07 21:21:00,
2013-01-07 16:23:00,37.8,31.2,29.85,NNW,338,3.0,4.0,77,0.00,,,0.00,12,Wunderground v.1.15,2013-01-07 21:23:00,
2013-01-07 16:28:00,37.7,31.5,29.85,NNE,32,3.0,8.0,78,0.00,,,0.00,12,Wunderground v.1.15,2013-01-07 21:28:00,
2013-01-07 16:29:00,37.7,31.5,29.85,SSW,197,3.0,8.0,78,0.00,,,0.00,11,Wunderground v.1.15,2013-01-07 21:29:00,
2013-01-07 16:30:00,37.7,31.5,29.85,SE,140,3.0,4.0,78,0.00,,,0.00,12,Wunderground v.1.15,2013-01-07 21:30:00,
2013-01-07 16:34:00,37.7,31.8,29.85,NNE,15,2.0,4.0,79,0.00,,,0.00,9,Wunderground v.1.15,2013-01-07 21:34:00,
2013-01-07 16:36:00,37.6,31.7,29.85,North,10,2.0,4.0,79,0.00,,,0.00,11,Wunderground v.1.15,2013-01-07 21:36:00,
2013-01-07 16:38:00,37.5,31.6,29.85,North,360,2.0,5.0,79,0.00,,,0.00,11,Wunderground v.1.15,2013-01-07 21:38:00,
2013-01-07 16:39:00,37.5,31.6,29.85,NNE,33,2.0,9.0,79,0.00,,,0.00,11,Wunderground v.1.15,2013-01-07 21:39:00,
2013-01-07 16:41:00,37.5,31.6,29.85,West,281,2.0,4.0,79,0.00,,,0.00,9,Wunderground v.1.15,2013-01-07 21:41:00,
2013-01-07 16:43:00,37.5,31.6,29.85,NNW,343,2.0,4.0,79,0.00,,,0.00,7,Wunderground v.1.15,2013-01-07 21:43:00,
2013-01-07 16:45:00,37.5,31.6,29.85,NW,323,2.0,5.0,79,0.00,,,0.00,7,Wunderground v.1.15,2013-01-07 21:45:00,
2013-01-07 16:48:00,37.5,31.6,29.85,NNW,329,1.0,5.0,79,0.00,,,0.00,5,Wunderground v.1.15,2013-01-07 21:48:00,
2013-01-07 16:50:00,37.4,31.5,29.85,SSE,149,1.0,1.0,79,0.00,,,0.00,5,Wunderground v.1.15,2013-01-07 21:50:00,
2013-01-07 16:53:00,37.4,31.5,29.85,WNW,292,1.0,7.0,79,0.00,,,0.00,0,Wunderground v.1.15,2013-01-07 21:53:00,
2013-01-07 16:54:00,37.4,31.5,29.85,NNE,29,1.0,7.0,79,0.00,,,0.00,0,Wunderground v.1.15,2013-01-07 21:54:00,
2013-01-07 16:58:00,37.3,31.4,29.85,SE,127,2.0,8.0,79,0.00,,,0.00,0,Wunderground v.1.15,2013-01-07 21:58:00,
2013-01-07 16:59:00,37.3,31.4,29.85,North,5,2.0,8.0,79,0.00,,,0.00,0,Wunderground v.1.15,2013-01-07 21:59:00,
2013-01-07 17:01:00,37.4,31.8,29.86,South,175,2.0,7.0,80,0.00,,,0.00,0,Wunderground v.1.15,2013-01-07 22:01:00,
2013-01-07 17:02:00,37.4,31.8,29.86,North,360,3.0,7.0,80,0.00,,,0.00,0,Wunderground v.1.15,2013-01-07 22:02:00,
2013-01-07 17:05:00,37.4,31.8,29.85,NNW,329,3.0,7.0,80,0.00,,,0.00,0,Wunderground v.1.15,2013-01-07 22:05:00,
2013-01-07 17:07:00,37.4,31.8,29.86,WSW,250,4.0,7.0,80,0.00,,,0.00,0,Wunderground v.1.15,2013-01-07 22:07:00,
2013-01-07 17:11:00,37.4,31.8,29.85,NNE,26,4.0,4.0,80,0.00,,,0.00,0,Wunderground v.1.15,2013-01-07 22:11:00,
2013-01-07 17:12:00,37.4,31.8,29.85,NE,42,4.0,4.0,80,0.00,,,0.00,0,Wunderground v.1.15,2013-01-07 22:12:00,
2013-01-07 17:13:00,37.4,31.8,29.85,North,5,4.0,6.0,80,0.00,,,0.00,0,Wunderground v.1.15,2013-01-07 22:13:00,
2013-01-07 17:14:00,37.4,31.8,29.85,North,355,4.0,6.0,80,0.00,,,0.00,0,Wunderground v.1.15,2013-01-07 22:14:00,
2013-01-07 17:18:00,37.3,31.7,29.85,South,188,4.0,8.0,80,0.00,,,0.00,0,Wunderground v.1.15,2013-01-07 22:18:00,
2013-01-07 17:19:00,37.3,31.7,29.85,WNW,298,4.0,8.0,80,0.00,,,0.00,0,Wunderground v.1.15,2013-01-07 22:19:00,
2013-01-07 17:24:00,37.3,31.7,29.85,SSW,212,3.0,12.0,80,0.00,,,0.00,0,Wunderground v.1.15,2013-01-07 22:24:00,
2013-01-07 17:25:00,37.3,31.7,29.85,NNW,342,3.0,12.0,80,0.00,,,0.00,0,Wunderground v.1.15,2013-01-07 22:25:00,
2013-01-07 17:28:00,37.3,31.7,29.85,SSE,167,3.0,12.0,80,0.00,,,0.00,0,Wunderground v.1.15,2013-01-07 22:28:00,
2013-01-07 17:29:00,37.3,31.7,29.85,NNE,13,3.0,12.0,80,0.00,,,0.00,0,Wunderground v.1.15,2013-01-07 22:29:00,
2013-01-07 17:30:00,37.3,31.7,29.85,North,5,3.0,4.0,80,0.00,,,0.00,0,Wunderground v.1.15,2013-01-07 22:30:00,
2013-01-07 17:34:00,37.2,31.9,29.85,South,180,3.0,5.0,81,0.00,,,0.00,0,Wunderground v.1.15,2013-01-07 22:34:00,
2013-01-07 17:35:00,37.2,31.9,29.85,NNE,25,3.0,5.0,81,0.00,,,0.00,0,Wunderground v.1.15,2013-01-07 22:35:00,
2013-01-07 17:39:00,37.1,31.5,29.85,SSE,167,3.0,5.0,80,0.00,,,0.00,0,Wunderground v.1.15,2013-01-07 22:39:00,
2013-01-07 17:41:00,37.1,31.5,29.85,ESE,117,3.0,4.0,80,0.00,,,0.00,0,Wunderground v.1.15,2013-01-07 22:41:00,
2013-01-07 17:43:00,37.1,31.5,29.85,NE,51,4.0,13.0,80,0.00,,,0.00,0,Wunderground v.1.15,2013-01-07 22:43:00,
2013-01-07 17:46:00,37.1,31.5,29.85,NE,34,4.0,13.0,80,0.00,,,0.00,0,Wunderground v.1.15,2013-01-07 22:46:00,
2013-01-07 17:47:00,37.1,31.2,29.84,North,360,4.0,13.0,79,0.00,,,0.00,0,Wunderground v.1.15,2013-01-07 22:47:00,
2013-01-07 17:50:00,37.1,31.2,29.84,West,278,3.0,3.0,79,0.00,,,0.00,0,Wunderground v.1.15,2013-01-07 22:50:00,
2013-01-07 17:51:00,37.1,31.2,29.84,North,360,3.0,4.0,79,0.00,,,0.00,0,Wunderground v.1.15,2013-01-07 22:51:00,
2013-01-07 17:52:00,37.1,31.2,29.84,NE,54,3.0,4.0,79,0.00,,,0.00,0,Wunderground v.1.15,2013-01-07 22:52:00,
2013-01-07 17:56:00,37.0,31.1,29.84,North,350,3.0,4.0,79,0.00,,,0.00,0,Wunderground v.1.15,2013-01-07 22:56:00,
2013-01-07 17:57:00,37.0,31.4,29.84,SSE,164,3.0,4.0,80,0.00,,,0.00,0,Wunderground v.1.15,2013-01-07 22:57:00,
2013-01-07 17:58:00,37.0,31.4,29.85,North,11,3.0,4.0,80,0.00,,,0.00,0,Wunderground v.1.15,2013-01-07 22:58:00,
2013-01-07 17:59:00,37.0,31.4,29.85,NNW,332,3.0,4.0,80,0.00,,,0.00,0,Wunderground v.1.15,2013-01-07 22:59:00,
2013-01-07 18:05:00,37.0,31.4,29.84,SE,146,4.0,13.0,80,0.00,,,0.00,0,Wunderground v.1.15,2013-01-07 23:05:00,
2013-01-07 18:07:00,37.0,31.4,29.84,SSW,204,4.0,13.0,80,0.00,,,0.00,0,Wunderground v.1.15,2013-01-07 23:07:00,
2013-01-07 18:09:00,37.0,31.4,29.85,NNE,17,5.0,13.0,80,0.00,,,0.00,0,Wunderground v.1.15,2013-01-07 23:09:00,
2013-01-07 18:11:00,37.0,31.4,29.84,North,10,5.0,6.0,80,0.00,,,0.00,0,Wunderground v.1.15,2013-01-07 23:11:00,
2013-01-07 18:14:00,37.0,31.4,29.85,South,184,6.0,10.0,80,0.00,,,0.00,0,Wunderground v.1.15,2013-01-07 23:14:00,
2013-01-07 18:16:00,37.1,31.2,29.85,NNW,341,6.0,10.0,79,0.00,,,0.00,0,Wunderground v.1.15,2013-01-07 23:16:00,
2013-01-07 18:18:00,37.1,31.5,29.85,South,169,6.0,10.0,80,0.00,,,0.00,0,Wunderground v.1.15,2013-01-07 23:18:00,
2013-01-07 18:20:00,37.1,31.5,29.85,WSW,240,6.0,6.0,80,0.00,,,0.00,0,Wunderground v.1.15,2013-01-07 23:20:00,
2013-01-07 18:21:00,37.1,31.5,29.85,ESE,110,6.0,6.0,80,0.00,,,0.00,0,Wunderground v.1.15,2013-01-07 23:21:00,
2013-01-07 18:22:00,37.1,31.5,29.85,North,5,5.0,6.0,80,0.00,,,0.00,0,Wunderground v.1.15,2013-01-07 23:22:00,
2013-01-07 18:27:00,37.0,31.4,29.85,North,355,3.0,6.0,80,0.00,,,0.00,0,Wunderground v.1.15,2013-01-07 23:27:00,
2013-01-07 18:28:00,36.9,31.3,29.85,SSW,208,3.0,6.0,80,0.00,,,0.00,0,Wunderground v.1.15,2013-01-07 23:28:00,
2013-01-07 18:30:00,36.9,31.3,29.85,East,80,3.0,3.0,80,0.00,,,0.00,0,Wunderground v.1.15,2013-01-07 23:30:00,
2013-01-07 18:31:00,36.9,31.3,29.85,NE,43,3.0,4.0,80,0.00,,,0.00,0,Wunderground v.1.15,2013-01-07 23:31:00,
2013-01-07 18:35:00,36.9,31.6,29.85,South,169,3.0,9.0,81,0.00,,,0.00,0,Wunderground v.1.15,2013-01-07 23:35:00,
2013-01-07 18:37:00,36.9,31.6,29.85,North,350,3.0,9.0,81,0.00,,,0.00,0,Wunderground v.1.15,2013-01-07 23:37:00,
2013-01-07 18:43:00,36.9,31.6,29.85,NNW,344,3.0,6.0,81,0.00,,,0.00,0,Wunderground v.1.15,2013-01-07 23:43:00,
2013-01-07 18:44:00,36.9,31.6,29.85,SSE,155,3.0,9.0,81,0.00,,,0.00,0,Wunderground v.1.15,2013-01-07 23:44:00,
2013-01-07 18:45:00,36.8,31.5,29.85,SW,229,3.0,9.0,81,0.00,,,0.00,0,Wunderground v.1.15,2013-01-07 23:45:00,
2013-01-07 18:48:00,36.8,31.2,29.85,ENE,67,3.0,9.0,80,0.00,,,0.00,0,Wunderground v.1.15,2013-01-07 23:48:00,
2013-01-07 18:50:00,36.8,31.2,29.85,NNE,30,3.0,4.0,80,0.00,,,0.00,0,Wunderground v.1.15,2013-01-07 23:50:00,
2013-01-07 18:51:00,36.8,31.2,29.85,SW,232,3.0,4.0,80,0.00,,,0.00,0,Wunderground v.1.15,2013-01-07 23:51:00,
2013-01-07 18:53:00,36.8,31.2,29.85,NNW,347,3.0,4.0,80,0.00,,,0.00,0,Wunderground v.1.15,2013-01-07 23:53:00,
2013-01-07 18:55:00,36.8,31.2,29.85,SW,227,3.0,4.0,80,0.00,,,0.00,0,Wunderground v.1.15,2013-01-07 23:55:00,
2013-01-07 18:57:00,36.8,31.2,29.85,SE,126,3.0,9.0,80,0.00,,,0.00,0,Wunderground v.1.15,2013-01-07 23:57:00,
2013-01-07 18:59:00,36.8,31.2,29.85,NNW,342,4.0,9.0,80,0.00,,,0.00,0,Wunderground v.1.15,2013-01-07 23:59:00,
2013-01-07 19:02:00,36.9,31.0,29.85,SSW,199,5.0,7.0,79,0.00,,,0.00,0,Wunderground v.1.15,2013-01-08 00:02:00,
2013-01-07 19:03:00,36.9,31.0,29.85,ESE,123,5.0,13.0,79,0.00,,,0.00,0,Wunderground v.1.15,2013-01-08 00:03:00,
2013-01-07 19:04:00,36.9,31.0,29.85,SSW,205,5.0,13.0,79,0.00,,,0.00,0,Wunderground v.1.15,2013-01-08 00:04:00,
2013-01-07 19:05:00,36.9,31.0,29.85,ENE,60,6.0,13.0,79,0.00,,,0.00,0,Wunderground v.1.15,2013-01-08 00:05:00,
2013-01-07 19:10:00,36.9,30.7,29.86,East,100,6.0,6.0,78,0.00,,,0.00,0,Wunderground v.1.15,2013-01-08 00:10:00,
2013-01-07 19:11:00,36.9,30.7,29.86,NW,318,6.0,6.0,78,0.00,,,0.00,0,Wunderground v.1.15,2013-01-08 00:11:00,
2013-01-07 19:12:00,36.9,30.7,29.85,NNE,12,6.0,6.0,78,0.00,,,0.00,0,Wunderground v.1.15,2013-01-08 00:12:00,
2013-01-07 19:13:00,36.9,30.7,29.85,SW,220,6.0,6.0,78,0.00,,,0.00,0,Wunderground v.1.15,2013-01-08 00:13:00,
2013-01-07 19:16:00,37.0,30.5,29.85,SW,222,6.0,10.0,77,0.00,,,0.00,0,Wunderground v.1.15,2013-01-08 00:16:00,
2013-01-07 19:20:00,37.0,30.8,29.85,NNE,13,6.0,6.0,78,0.00,,,0.00,0,Wunderground v.1.15,2013-01-08 00:20:00,
2013-01-07 19:22:00,36.9,30.4,29.85,South,171,5.0,11.0,77,0.00,,,0.00,0,Wunderground v.1.15,2013-01-08 00:22:00,
2013-01-07 19:25:00,36.9,30.4,29.85,South,172,6.0,14.0,77,0.00,,,0.00,0,Wunderground v.1.15,2013-01-08 00:25:00,
2013-01-07 19:26:00,36.9,30.4,29.85,SSE,162,5.0,17.0,77,0.00,,,0.00,0,Wunderground v.1.15,2013-01-08 00:26:00,
2013-01-07 19:28:00,36.9,30.4,29.85,South,184,5.0,17.0,77,0.00,,,0.00,0,Wunderground v.1.15,2013-01-08 00:28:00,
2013-01-07 19:30:00,36.9,30.4,29.85,SSW,202,6.0,6.0,77,0.00,,,0.00,0,Wunderground v.1.15,2013-01-08 00:30:00,
2013-01-07 19:32:00,36.9,30.7,29.85,South,174,6.0,10.0,78,0.00,,,0.00,0,Wunderground v.1.15,2013-01-08 00:32:00,
2013-01-07 19:33:00,36.9,30.4,29.85,SW,236,6.0,10.0,77,0.00,,,0.00,0,Wunderground v.1.15,2013-01-08 00:33:00,
2013-01-07 19:37:00,36.9,30.4,29.85,NE,34,6.0,15.0,77,0.00,,,0.00,0,Wunderground v.1.15,2013-01-08 00:37:00,
2013-01-07 19:40:00,36.9,30.4,29.85,South,185,6.0,10.0,77,0.00,,,0.00,0,Wunderground v.1.15,2013-01-08 00:40:00,
2013-01-07 19:46:00,37.0,30.5,29.85,South,172,7.0,14.0,77,0.00,,,0.00,0,Wunderground v.1.15,2013-01-08 00:46:00,
2013-01-07 19:47:00,37.0,30.8,29.85,WSW,248,7.0,14.0,78,0.00,,,0.00,0,Wunderground v.1.15,2013-01-08 00:47:00,
2013-01-07 19:50:00,36.9,30.7,29.85,NNW,327,6.0,6.0,78,0.00,,,0.00,0,Wunderground v.1.15,2013-01-08 00:50:00,
2013-01-07 19:53:00,36.9,30.7,29.85,SSW,203,5.0,9.0,78,0.00,,,0.00,0,Wunderground v.1.15,2013-01-08 00:53:00,
2013-01-07 19:55:00,36.9,30.7,29.85,SSW,193,4.0,11.0,78,0.00,,,0.00,0,Wunderground v.1.15,2013-01-08 00:55:00,
2013-01-07 19:56:00,36.8,30.6,29.85,South,180,4.0,11.0,78,0.00,,,0.00,0,Wunderground v.1.15,2013-01-08 00:56:00,
2013-01-07 20:00:00,36.8,30.6,29.85,South,171,4.0,11.0,78,0.00,,,0.00,0,Wunderground v.1.15,2013-01-08 01:00:00,
2013-01-07 20:01:00,36.8,30.6,29.85,NNW,348,4.0,11.0,78,0.00,,,0.00,0,Wunderground v.1.15,2013-01-08 01:01:00,
2013-01-07 20:02:00,36.8,30.6,29.85,North,360,4.0,11.0,78,0.00,,,0.00,0,Wunderground v.1.15,2013-01-08 01:02:00,
2013-01-07 20:05:00,36.8,30.6,29.85,NNE,31,4.0,11.0,78,0.00,,,0.00,0,Wunderground v.1.15,2013-01-08 01:05:00,
2013-01-07 20:10:00,36.8,30.9,29.85,WSW,246,4.0,11.0,79,0.00,,,0.00,0,Wunderground v.1.15,2013-01-08 01:10:00,
2013-01-07 20:11:00,36.8,30.6,29.85,South,175,4.0,12.0,78,0.00,,,0.00,0,Wunderground v.1.15,2013-01-08 01:11:00,
2013-01-07 20:12:00,36.8,30.6,29.85,NNE,21,4.0,12.0,78,0.00,,,0.00,0,Wunderground v.1.15,2013-01-08 01:12:00,
2013-01-07 20:13:00,36.8,30.6,29.85,SE,145,5.0,12.0,78,0.00,,,0.00,0,Wunderground v.1.15,2013-01-08 01:13:00,
2013-01-07 20:17:00,36.8,30.6,29.85,SW,217,5.0,12.0,78,0.00,,,0.00,0,Wunderground v.1.15,2013-01-08 01:17:00,
2013-01-07 20:18:00,36.9,30.7,29.85,South,173,4.0,12.0,78,0.00,,,0.00,0,Wunderground v.1.15,2013-01-08 01:18:00,
2013-01-07 20:19:00,36.8,30.6,29.85,SSW,192,4.0,12.0,78,0.00,,,0.00,0,Wunderground v.1.15,2013-01-08 01:19:00,
2013-01-07 20:24:00,36.8,30.6,29.85,SSE,160,4.0,11.0,78,0.00,,,0.00,0,Wunderground v.1.15,2013-01-08 01:24:00,
2013-01-07 20:28:00,36.9,30.7,29.85,South,171,4.0,11.0,78,0.00,,,0.00,0,Wunderground v.1.15,2013-01-08 01:28:00,
2013-01-07 20:31:00,36.9,30.7,29.84,NNE,15,5.0,5.0,78,0.00,,,0.00,0,Wunderground v.1.15,2013-01-08 01:31:00,
2013-01-07 20:32:00,36.9,30.7,29.85,SW,215,5.0,7.0,78,0.00,,,0.00,0,Wunderground v.1.15,2013-01-08 01:32:00,
2013-01-07 20:33:00,36.9,30.7,29.84,SSE,155,5.0,7.0,78,0.00,,,0.00,0,Wunderground v.1.15,2013-01-08 01:33:00,
2013-01-07 20:38:00,36.8,30.9,29.84,South,186,4.0,9.0,79,0.00,,,0.00,0,Wunderground v.1.15,2013-01-08 01:38:00,
2013-01-07 20:40:00,36.8,30.6,29.84,WSW,249,4.0,7.0,78,0.00,,,0.00,0,Wunderground v.1.15,2013-01-08 01:40:00,
2013-01-07 20:43:00,36.8,30.6,29.85,SSE,163,4.0,14.0,78,0.00,,,0.00,0,Wunderground v.1.15,2013-01-08 01:43:00,
2013-01-07 20:47:00,36.8,30.9,29.85,East,92,5.0,14.0,79,0.00,,,0.00,0,Wunderground v.1.15,2013-01-08 01:47:00,
2013-01-07 20:49:00,36.8,30.9,29.85,South,170,5.0,14.0,79,0.00,,,0.00,0,Wunderground v.1.15,2013-01-08 01:49:00,
2013-01-07 20:50:00,36.8,30.6,29.85,SSE,154,5.0,8.0,78,0.00,,,0.00,0,Wunderground v.1.15,2013-01-08 01:50:00,
2013-01-07 20:52:00,36.8,30.6,29.85,SE,128,5.0,8.0,78,0.00,,,0.00,0,Wunderground v.1.15,2013-01-08 01:52:00,
2013-01-07 20:56:00,36.8,30.9,29.85,ENE,61,5.0,10.0,79,0.00,,,0.00,0,Wunderground v.1.15,2013-01-08 01:56:00,
2013-01-07 20:57:00,36.8,30.6,29.85,South,191,5.0,10.0,78,0.00,,,0.00,0,Wunderground v.1.15,2013-01-08 01:57:00,
2013-01-07 20:58:00,36.8,30.6,29.85,North,355,5.0,10.0,78,0.00,,,0.00,0,Wunderground v.1.15,2013-01-08 01:58:00,
2013-01-07 21:01:00,36.8,30.9,29.85,SE,130,5.0,8.0,79,0.00,,,0.00,0,Wunderground v.1.15,2013-01-08 02:01:00,
2013-01-07 21:04:00,36.8,30.9,29.85,North,355,4.0,8.0,79,0.00,,,0.00,0,Wunderground v.1.15,2013-01-08 02:04:00,
2013-01-07 21:06:00,36.7,30.8,29.85,SSE,164,4.0,10.0,79,0.00,,,0.00,0,Wunderground v.1.15,2013-01-08 02:06:00,
2013-01-07 21:07:00,36.7,30.8,29.85,South,183,4.0,10.0,79,0.00,,,0.00,0,Wunderground v.1.15,2013-01-08 02:07:00,
2013-01-07 21:10:00,36.7,30.8,29.85,East,80,5.0,5.0,79,0.00,,,0.00,0,Wunderground v.1.15,2013-01-08 02:10:00,
2013-01-07 21:12:00,36.7,30.8,29.85,SW,230,4.0,5.0,79,0.00,,,0.00,0,Wunderground v.1.15,2013-01-08 02:12:00,
2013-01-07 21:13:00,36.7,30.8,29.85,NNW,344,4.0,5.0,79,0.00,,,0.00,0,Wunderground v.1.15,2013-01-08 02:13:00,
2013-01-07 21:14:00,36.7,30.8,29.85,NNW,344,4.0,5.0,79,0.00,,,0.00,0,Wunderground v.1.15,2013-01-08 02:14:00,
2013-01-07 21:19:00,36.7,30.8,29.86,SSE,163,5.0,6.0,79,0.00,,,0.00,0,Wunderground v.1.15,2013-01-08 02:19:00,
2013-01-07 21:20:00,36.7,30.8,29.86,SW,225,5.0,10.0,79,0.00,,,0.00,0,Wunderground v.1.15,2013-01-08 02:20:00,
2013-01-07 21:22:00,36.7,30.8,29.86,West,275,5.0,10.0,79,0.00,,,0.00,0,Wunderground v.1.15,2013-01-08 02:22:00,
2013-01-07 21:23:00,36.7,30.8,29.85,NNE,17,5.0,10.0,79,0.00,,,0.00,0,Wunderground v.1.15,2013-01-08 02:23:00,
2013-01-07 21:26:00,36.7,30.8,29.85,SE,138,6.0,10.0,79,0.00,,,0.00,0,Wunderground v.1.15,2013-01-08 02:26:00,
2013-01-07 21:27:00,36.7,30.8,29.86,ESE,117,6.0,14.0,79,0.00,,,0.00,0,Wunderground v.1.15,2013-01-08 02:27:00,
2013-01-07 21:29:00,36.7,30.8,29.86,SSW,210,6.0,14.0,79,0.00,,,0.00,0,Wunderground v.1.15,2013-01-08 02:29:00,
2013-01-07 21:31:00,36.7,31.1,29.86,East,101,5.0,14.0,80,0.00,,,0.00,0,Wunderground v.1.15,2013-01-08 02:31:00,
2013-01-07 21:34:00,36.7,31.1,29.86,SSE,159,5.0,15.0,80,0.00,,,0.00,0,Wunderground v.1.15,2013-01-08 02:34:00,
2013-01-07 21:36:00,36.7,31.1,29.86,SSE,166,5.0,15.0,80,0.00,,,0.00,0,Wunderground v.1.15,2013-01-08 02:36:00,
2013-01-07 21:38:00,36.6,31.0,29.86,SSE,148,5.0,15.0,80,0.00,,,0.00,0,Wunderground v.1.15,2013-01-08 02:38:00,
2013-01-07 21:39:00,36.6,31.0,29.86,North,355,5.0,15.0,80,0.00,,,0.01,0,Wunderground v.1.15,2013-01-08 02:39:00,
2013-01-07 21:42:00,36.6,31.0,29.86,SSW,213,5.0,5.0,80,0.00,,,0.01,0,Wunderground v.1.15,2013-01-08 02:42:00,
2013-01-07 21:44:00,36.6,31.0,29.86,SW,223,5.0,5.0,80,0.00,,,0.01,0,Wunderground v.1.15,2013-01-08 02:44:00,
2013-01-07 21:45:00,36.6,31.3,29.86,SSW,198,5.0,10.0,81,0.00,,,0.01,0,Wunderground v.1.15,2013-01-08 02:45:00,
2013-01-07 21:46:00,36.6,31.0,29.86,South,188,5.0,10.0,80,0.00,,,0.01,0,Wunderground v.1.15,2013-01-08 02:46:00,
2013-01-07 21:50:00,36.6,31.3,29.86,East,88,5.0,5.0,81,0.00,,,0.01,0,Wunderground v.1.15,2013-01-08 02:50:00,
2013-01-07 21:51:00,36.6,31.3,29.86,SE,126,5.0,7.0,81,0.00,,,0.01,0,Wunderground v.1.15,2013-01-08 02:51:00,
2013-01-07 21:53:00,36.6,31.0,29.86,NNE,12,5.0,7.0,80,0.00,,,0.01,0,Wunderground v.1.15,2013-01-08 02:53:00,
2013-01-07 21:55:00,36.6,31.3,29.86,South,182,5.0,13.0,81,0.00,,,0.01,0,Wunderground v.1.15,2013-01-08 02:55:00,
2013-01-07 21:59:00,36.5,31.2,29.86,North,355,4.0,13.0,81,0.00,,,0.01,0,Wunderground v.1.15,2013-01-08 02:59:00,
2013-01-07 22:02:00,36.5,31.2,29.86,NE,54,4.0,17.0,81,0.00,,,0.01,0,Wunderground v.1.15,2013-01-08 03:02:00,
2013-01-07 22:03:00,36.4,31.1,29.86,South,184,4.0,17.0,81,0.00,,,0.01,0,Wunderground v.1.15,2013-01-08 03:03:00,
2013-01-07 22:04:00,36.5,31.2,29.87,SSE,163,4.0,17.0,81,0.00,,,0.01,0,Wunderground v.1.15,2013-01-08 03:04:00,
2013-01-07 22:08:00,36.5,31.2,29.86,South,180,4.0,17.0,81,0.00,,,0.01,0,Wunderground v.1.15,2013-01-08 03:08:00,
2013-01-07 22:09:00,36.5,31.2,29.86,NE,51,4.0,17.0,81,0.00,,,0.01,0,Wunderground v.1.15,2013-01-08 03:09:00,
2013-01-07 22:11:00,36.5,31.2,29.86,SSE,161,4.0,7.0,81,0.00,,,0.01,0,Wunderground v.1.15,2013-01-08 03:11:00,
2013-01-07 22:14:00,36.5,31.2,29.86,NNW,340,4.0,7.0,81,0.00,,,0.01,0,Wunderground v.1.15,2013-01-08 03:14:00,
2013-01-07 22:17:00,36.5,31.5,29.87,NNE,15,4.0,7.0,82,0.00,,,0.01,0,Wunderground v.1.15,2013-01-08 03:17:00,
2013-01-07 22:21:00,36.5,31.5,29.87,South,181,4.0,16.0,82,0.00,,,0.01,0,Wunderground v.1.15,2013-01-08 03:21:00,
2013-01-07 22:22:00,36.6,31.6,29.87,ENE,72,5.0,16.0,82,0.00,,,0.01,0,Wunderground v.1.15,2013-01-08 03:22:00,
2013-01-07 22:23:00,36.6,31.3,29.86,SSE,150,5.0,16.0,81,0.00,,,0.01,0,Wunderground v.1.15,2013-01-08 03:23:00,
2013-01-07 22:27:00,36.6,31.6,29.87,South,170,5.0,16.0,82,0.00,,,0.01,0,Wunderground v.1.15,2013-01-08 03:27:00,
2013-01-07 22:29:00,36.6,31.3,29.87,North,355,5.0,16.0,81,0.00,,,0.01,0,Wunderground v.1.15,2013-01-08 03:29:00,
2013-01-07 22:32:00,36.5,31.2,29.86,SSW,203,4.0,7.0,81,0.00,,,0.01,0,Wunderground v.1.15,2013-01-08 03:32:00,
2013-01-07 22:35:00,36.4,31.1,29.86,SW,236,4.0,7.0,81,0.00,,,0.02,0,Wunderground v.1.15,2013-01-08 03:35:00,
2013-01-07 22:39:00,36.4,31.1,29.86,ESE,121,5.0,7.0,81,0.00,,,0.02,0,Wunderground v.1.15,2013-01-08 03:39:00,
2013-01-07 22:41:00,36.3,31.0,29.86,South,170,5.0,9.0,81,0.00,,,0.02,0,Wunderground v.1.15,2013-01-08 03:41:00,
2013-01-07 22:42:00,36.4,31.1,29.86,NNE,31,5.0,9.0,81,0.00,,,0.02,0,Wunderground v.1.15,2013-01-08 03:42:00,
2013-01-07 22:45:00,36.4,31.1,29.86,NNE,31,5.0,9.0,81,0.00,,,0.02,0,Wunderground v.1.15,2013-01-08 03:45:00,
2013-01-07 22:48:00,36.4,31.1,29.87,North,351,5.0,10.0,81,0.00,,,0.02,0,Wunderground v.1.15,2013-01-08 03:48:00,
2013-01-07 22:49:00,36.3,31.0,29.87,South,174,5.0,10.0,81,0.00,,,0.02,0,Wunderground v.1.15,2013-01-08 03:49:00,
2013-01-07 22:51:00,36.3,31.0,29.87,South,188,4.0,9.0,81,0.00,,,0.02,0,Wunderground v.1.15,2013-01-08 03:51:00,
2013-01-07 22:56:00,36.4,31.1,29.87,NE,53,5.0,10.0,81,0.00,,,0.02,0,Wunderground v.1.15,2013-01-08 03:56:00,
2013-01-07 22:57:00,36.3,31.0,29.87,SSW,206,5.0,10.0,81,0.00,,,0.02,0,Wunderground v.1.15,2013-01-08 03:57:00,
2013-01-07 22:59:00,36.3,31.0,29.87,South,181,5.0,10.0,81,0.00,,,0.02,0,Wunderground v.1.15,2013-01-08 03:59:00,
2013-01-07 23:02:00,36.2,30.9,29.88,South,187,5.0,5.0,81,0.00,,,0.02,0,Wunderground v.1.15,2013-01-08 04:02:00,
2013-01-07 23:03:00,36.2,30.9,29.88,South,171,5.0,10.0,81,0.00,,,0.02,0,Wunderground v.1.15,2013-01-08 04:03:00,
2013-01-07 23:05:00,36.2,30.9,29.88,SSW,196,4.0,10.0,81,0.00,,,0.02,0,Wunderground v.1.15,2013-01-08 04:05:00,
2013-01-07 23:09:00,36.2,30.9,29.88,South,185,5.0,10.0,81,0.00,,,0.02,0,Wunderground v.1.15,2013-01-08 04:09:00,
2013-01-07 23:10:00,36.1,30.8,29.88,SSE,164,5.0,5.0,81,0.00,,,0.02,0,Wunderground v.1.15,2013-01-08 04:10:00,
2013-01-07 23:12:00,36.1,30.8,29.88,ENE,60,4.0,5.0,81,0.00,,,0.02,0,Wunderground v.1.15,2013-01-08 04:12:00,
2013-01-07 23:16:00,36.1,31.1,29.88,SE,138,4.0,6.0,82,0.00,,,0.02,0,Wunderground v.1.15,2013-01-08 04:16:00,
2013-01-07 23:17:00,36.1,31.1,29.88,North,355,4.0,6.0,82,0.00,,,0.02,0,Wunderground v.1.15,2013-01-08 04:17:00,
2013-01-07 23:18:00,36.0,30.7,29.89,SSE,163,4.0,7.0,81,0.00,,,0.02,0,Wunderground v.1.15,2013-01-08 04:18:00,
2013-01-07 23:20:00,36.0,30.7,29.89,SSW,208,4.0,10.0,81,0.00,,,0.02,0,Wunderground v.1.15,2013-01-08 04:20:00,
2013-01-07 23:23:00,36.0,31.0,29.89,SE,125,4.0,13.0,82,0.00,,,0.02,0,Wunderground v.1.15,2013-01-08 04:23:00,
2013-01-07 23:25:00,36.0,31.0,29.89,North,355,4.0,13.0,82,0.00,,,0.02,0,Wunderground v.1.15,2013-01-08 04:25:00,
2013-01-07 23:30:00,35.9,30.9,29.89,SSE,166,4.0,8.0,82,0.00,,,0.02,0,Wunderground v.1.15,2013-01-08 04:30:00,
2013-01-07 23:31:00,35.9,30.6,29.89,SSW,200,5.0,8.0,81,0.00,,,0.02,0,Wunderground v.1.15,2013-01-08 04:31:00,
2013-01-07 23:35:00,35.9,30.9,29.89,SE,134,5.0,11.0,82,0.00,,,0.02,0,Wunderground v.1.15,2013-01-08 04:35:00,
2013-01-07 23:36:00,35.9,30.9,29.90,South,172,5.0,12.0,82,0.00,,,0.02,0,Wunderground v.1.15,2013-01-08 04:36:00,
2013-01-07 23:37:00,35.9,30.9,29.89,NNE,21,5.0,12.0,82,0.00,,,0.02,0,Wunderground v.1.15,2013-01-08 04:37:00,
2013-01-07 23:42:00,35.7,30.7,29.89,South,186,4.0,10.0,82,0.00,,,0.02,0,Wunderground v.1.15,2013-01-08 04:42:00,
2013-01-07 23:44:00,35.7,30.7,29.89,NE,51,3.0,10.0,82,0.00,,,0.02,0,Wunderground v.1.15,2013-01-08 04:44:00,
2013-01-07 23:48:00,35.6,30.6,29.89,ENE,78,3.0,10.0,82,0.00,,,0.02,0,Wunderground v.1.15,2013-01-08 04:48:00,
2013-01-07 23:49:00,35.6,30.6,29.89,ESE,103,3.0,10.0,82,0.00,,,0.02,0,Wunderground v.1.15,2013-01-08 04:49:00,
2013-01-07 23:50:00,35.6,30.6,29.89,SSE,157,3.0,3.0,82,0.00,,,0.02,0,Wunderground v.1.15,2013-01-08 04:50:00,
2013-01-07 23:55:00,35.6,30.6,29.89,South,174,3.0,6.0,82,0.00,,,0.02,0,Wunderground v.1.15,2013-01-08 04:55:00,
2013-01-07 23:56:00,35.6,30.6,29.89,East,87,4.0,6.0,82,0.00,,,0.02,0,Wunderground v.1.15,2013-01-08 04:56:00,
2013-01-07 23:57:00,35.6,30.6,29.89,South,171,4.0,7.0,82,0.00,,,0.02,0,Wunderground v.1.15,2013-01-08 04:57:00,